CPA840 VHHH-KJFK

Flight info

Callsign CPA840
Flight time 15h 15m
Altitude 33000
Route DALOL V631 ENVAR M750 MUKEP Y891 OVSUN/N0492F340 Y893 IGMIS/N0493F330 Y57 POROT OTR11 AVBET OTR9 EMRON DCT 44N160E 49N170E DCT EYETI DCT CAMBO/N0489F350 DCT CUDDA DCT PDN DCT CJAYY DCT 58N140W DCT YXJ/N0480F370 DCT NUBEG Q971 WAINN DCT DURUR DCT 49N100W DCT GFK DCT GRB DCT TWIGS DCT JHW J106 MAGIO Q476 WLKES PUCKY1
Aircraft A35K/H-SDE2E3GHIJ3J4J5LM1ORWXY/LB1D1

Departure

Time 2026-05-05 08:57
Airport Hong Kong International Airport (VHHH)

Arrival

Time 2026-05-06 00:12
Airport John F. Kennedy International Airport (KJFK)
Time Latitude Longitude Altitude Speed Heading
2026-05-05 07:43 22.31086 113.91644 38 ft 0 kts 70°
2026-05-05 08:38 22.31084 113.91639 38 ft 3 kts 70°
2026-05-05 08:39 22.31076 113.91611 38 ft 4 kts 71°
2026-05-05 08:39 22.31067 113.91584 35 ft 3 kts 71°
2026-05-05 08:39 22.31058 113.91563 37 ft 4 kts 36°
2026-05-05 08:39 22.31037 113.91559 36 ft 4 kts 341°
2026-05-05 08:40 22.31019 113.91567 36 ft 0 kts 341°
2026-05-05 08:44 22.31023 113.91565 36 ft 1 kts 341°
2026-05-05 08:44 22.31037 113.91560 36 ft 3 kts 341°
2026-05-05 08:45 22.31061 113.91551 38 ft 4 kts 341°
2026-05-05 08:45 22.31094 113.91538 38 ft 6 kts 341°
2026-05-05 08:45 22.31135 113.91523 38 ft 7 kts 341°
2026-05-05 08:45 22.31185 113.91504 38 ft 8 kts 341°
2026-05-05 08:46 22.31239 113.91484 38 ft 5 kts 341°
2026-05-05 08:46 22.31250 113.91479 38 ft 1 kts 341°
2026-05-05 08:46 22.31262 113.91475 38 ft 3 kts 341°
2026-05-05 08:46 22.31285 113.91466 38 ft 4 kts 340°
2026-05-05 08:47 22.31311 113.91446 38 ft 5 kts 315°
2026-05-05 08:47 22.31326 113.91410 38 ft 6 kts 281°
2026-05-05 08:47 22.31318 113.91364 38 ft 7 kts 250°
2026-05-05 08:47 22.31300 113.91311 38 ft 8 kts 250°
2026-05-05 08:48 22.31280 113.91248 38 ft 10 kts 250°
2026-05-05 08:48 22.31257 113.91175 38 ft 11 kts 251°
2026-05-05 08:48 22.31231 113.91093 38 ft 12 kts 251°
2026-05-05 08:48 22.31202 113.91003 38 ft 13 kts 251°
2026-05-05 08:49 22.31170 113.90907 38 ft 14 kts 250°
2026-05-05 08:49 22.31136 113.90803 38 ft 15 kts 251°
2026-05-05 08:49 22.31102 113.90691 38 ft 16 kts 251°
2026-05-05 08:49 22.31063 113.90573 37 ft 17 kts 251°
2026-05-05 08:50 22.31023 113.90448 38 ft 17 kts 251°
2026-05-05 08:50 22.30983 113.90324 38 ft 18 kts 251°
2026-05-05 08:50 22.30953 113.90231 38 ft 0 kts 251°
2026-05-05 08:50 22.30952 113.90229 38 ft 1 kts 251°
2026-05-05 08:51 22.30944 113.90206 38 ft 4 kts 251°
2026-05-05 08:51 22.30934 113.90175 38 ft 5 kts 251°
2026-05-05 08:51 22.30920 113.90132 38 ft 7 kts 251°
2026-05-05 08:51 22.30903 113.90078 38 ft 8 kts 251°
2026-05-05 08:52 22.30883 113.90015 38 ft 10 kts 251°
2026-05-05 08:52 22.30859 113.89941 38 ft 11 kts 251°
2026-05-05 08:52 22.30844 113.89886 38 ft 12 kts 257°
2026-05-05 08:52 22.30834 113.89796 38 ft 12 kts 270°
2026-05-05 08:53 22.30848 113.89702 38 ft 13 kts 281°
2026-05-05 08:53 22.30852 113.89600 38 ft 14 kts 268°
2026-05-05 08:53 22.30844 113.89523 38 ft 6 kts 261°
2026-05-05 08:53 22.30838 113.89485 38 ft 5 kts 261°
2026-05-05 08:54 22.30838 113.89451 38 ft 4 kts 284°
2026-05-05 08:54 22.30846 113.89437 38 ft 0 kts 308°
2026-05-05 08:55 22.30857 113.89425 37 ft 4 kts 314°
2026-05-05 08:56 22.30901 113.89395 35 ft 9 kts 338°
2026-05-05 08:56 22.30956 113.89400 35 ft 8 kts 31°
2026-05-05 08:56 22.30981 113.89453 35 ft 9 kts 72°
2026-05-05 08:56 22.31002 113.89523 35 ft 16 kts 72°
2026-05-05 08:57 22.31130 113.89916 36 ft 98 kts 71°
2026-05-05 08:57 22.31434 113.90867 38 ft 171 kts 71°
2026-05-05 08:57 22.31879 113.92174 779 ft 176 kts 70°
2026-05-05 08:57 22.32286 113.93393 1907 ft 177 kts 73°
2026-05-05 08:58 22.32696 113.94698 2283 ft 192 kts 73°
2026-05-05 08:58 22.33143 113.96137 2480 ft 212 kts 73°
2026-05-05 08:58 22.33514 113.97743 2830 ft 228 kts 79°
2026-05-05 08:58 22.33794 113.99462 3474 ft 236 kts 84°
2026-05-05 08:59 22.33752 114.01244 4166 ft 240 kts 104°
2026-05-05 08:59 22.33158 114.02932 4762 ft 245 kts 124°
2026-05-05 08:59 22.32005 114.04287 5304 ft 246 kts 146°
2026-05-05 08:59 22.30567 114.05291 5873 ft 248 kts 152°
2026-05-05 09:00 22.29065 114.06243 6410 ft 252 kts 152°
2026-05-05 09:00 22.27551 114.07209 7010 ft 254 kts 152°
2026-05-05 09:00 22.26008 114.08169 7661 ft 257 kts 157°
2026-05-05 09:00 22.24307 114.08683 8301 ft 254 kts 180°
2026-05-05 09:01 22.22508 114.08722 8817 ft 267 kts 184°
2026-05-05 09:01 22.20613 114.08667 9461 ft 278 kts 185°
2026-05-05 09:01 22.18647 114.08650 10155 ft 287 kts 180°
2026-05-05 09:01 22.16650 114.09172 10585 ft 310 kts 156°
2026-05-05 09:02 22.14947 114.10719 10858 ft 335 kts 128°
2026-05-05 09:02 22.13792 114.12941 11115 ft 353 kts 117°
2026-05-05 09:02 22.12716 114.15385 11338 ft 368 kts 117°
2026-05-05 09:02 22.11580 114.17910 11555 ft 382 kts 118°
2026-05-05 09:03 22.10382 114.20508 11838 ft 391 kts 119°
2026-05-05 09:03 22.09148 114.23145 12273 ft 396 kts 119°
2026-05-05 09:03 22.07731 114.25705 12681 ft 398 kts 130°
2026-05-05 09:03 22.05752 114.27779 13153 ft 396 kts 145°
2026-05-05 09:04 22.03540 114.29555 13603 ft 399 kts 147°
2026-05-05 09:04 22.01286 114.31309 14014 ft 403 kts 148°
2026-05-05 09:04 21.99011 114.33085 14421 ft 406 kts 148°
2026-05-05 09:04 21.96717 114.34883 14836 ft 408 kts 148°
2026-05-05 09:05 21.94414 114.36698 15244 ft 411 kts 147°
2026-05-05 09:05 21.92094 114.38524 15657 ft 414 kts 148°
2026-05-05 09:05 21.89765 114.40353 16106 ft 415 kts 148°
2026-05-05 09:05 21.87442 114.42215 16511 ft 420 kts 145°
2026-05-05 09:06 21.85384 114.44486 16868 ft 430 kts 129°
2026-05-05 09:06 21.83991 114.47360 17237 ft 439 kts 111°
2026-05-05 09:06 21.83106 114.50516 17603 ft 443 kts 107°
2026-05-05 09:06 21.82301 114.53737 17970 ft 447 kts 107°
2026-05-05 09:07 21.81486 114.56982 18340 ft 450 kts 107°
2026-05-05 09:07 21.80659 114.60234 18674 ft 453 kts 107°
2026-05-05 09:07 21.79819 114.63511 18993 ft 455 kts 107°
2026-05-05 09:07 21.78975 114.66785 19385 ft 455 kts 107°
2026-05-05 09:08 21.78124 114.70076 19695 ft 458 kts 107°
2026-05-05 09:08 21.77264 114.73395 19993 ft 461 kts 107°
2026-05-05 09:08 21.76409 114.76691 20293 ft 464 kts 107°
2026-05-05 09:08 21.75539 114.80042 20611 ft 467 kts 107°
2026-05-05 09:09 21.74715 114.83429 20933 ft 470 kts 103°
2026-05-05 09:09 21.74307 114.86933 21237 ft 474 kts 94°
2026-05-05 09:09 21.74180 114.90470 21547 ft 477 kts 91°
2026-05-05 09:09 21.74180 114.94062 21862 ft 479 kts 89°
2026-05-05 09:10 21.74230 114.97653 22177 ft 482 kts 89°
2026-05-05 09:10 21.74286 115.01277 22527 ft 484 kts 89°
2026-05-05 09:10 21.74328 115.04905 22835 ft 487 kts 89°
2026-05-05 09:10 21.74352 115.08557 23136 ft 490 kts 90°
2026-05-05 09:11 21.74361 115.12227 23449 ft 492 kts 90°
2026-05-05 09:11 21.74360 115.15919 23718 ft 495 kts 90°
2026-05-05 09:11 21.74354 115.19631 23968 ft 497 kts 90°
2026-05-05 09:11 21.74346 115.23361 24221 ft 499 kts 90°
2026-05-05 09:12 21.74337 115.27106 24482 ft 502 kts 90°
2026-05-05 09:12 21.74328 115.30863 24760 ft 504 kts 90°
2026-05-05 09:12 21.74318 115.34640 25045 ft 506 kts 90°
2026-05-05 09:12 21.74308 115.38435 25344 ft 509 kts 90°
2026-05-05 09:13 21.74298 115.42249 25636 ft 511 kts 90°
2026-05-05 09:13 21.74286 115.46086 25971 ft 514 kts 90°
2026-05-05 09:13 21.74274 115.49939 26303 ft 516 kts 90°
2026-05-05 09:13 21.74261 115.53812 26616 ft 519 kts 90°
2026-05-05 09:14 21.74247 115.57700 26933 ft 522 kts 90°
2026-05-05 09:14 21.74235 115.61606 27249 ft 524 kts 90°
2026-05-05 09:14 21.74222 115.65537 27567 ft 527 kts 90°
2026-05-05 09:14 21.74207 115.69436 27901 ft 529 kts 90°
2026-05-05 09:15 21.74189 115.73401 28221 ft 532 kts 90°
2026-05-05 09:15 21.74171 115.77390 28512 ft 534 kts 90°
2026-05-05 09:15 21.74151 115.81398 28815 ft 537 kts 90°
2026-05-05 09:15 21.74131 115.85426 29111 ft 539 kts 90°
2026-05-05 09:16 21.74110 115.89470 29403 ft 542 kts 90°
2026-05-05 09:16 21.74088 115.93531 29681 ft 544 kts 90°
2026-05-05 09:16 21.74066 115.97606 29950 ft 546 kts 90°
2026-05-05 09:16 21.74042 116.01700 30191 ft 548 kts 90°
2026-05-05 09:17 21.74017 116.05805 30415 ft 550 kts 90°
2026-05-05 09:17 21.73991 116.09927 30654 ft 552 kts 90°
2026-05-05 09:17 21.73964 116.14061 30894 ft 554 kts 90°
2026-05-05 09:17 21.73935 116.18212 31091 ft 556 kts 90°
2026-05-05 09:18 21.73906 116.22324 31343 ft 556 kts 90°
2026-05-05 09:18 21.73875 116.26472 31644 ft 555 kts 91°
2026-05-05 09:18 21.73844 116.30620 31988 ft 553 kts 91°
2026-05-05 09:18 21.73812 116.34751 32272 ft 552 kts 91°
2026-05-05 09:19 21.73778 116.38877 32526 ft 552 kts 91°
2026-05-05 09:19 21.73744 116.43003 32786 ft 552 kts 91°
2026-05-05 09:19 21.73708 116.47126 33057 ft 551 kts 91°
2026-05-05 09:19 21.73672 116.51256 33317 ft 551 kts 91°
2026-05-05 09:20 21.73634 116.55371 33569 ft 550 kts 91°
2026-05-05 09:20 21.73596 116.59492 33826 ft 550 kts 91°
2026-05-05 09:20 21.73557 116.63602 34039 ft 550 kts 91°
2026-05-05 09:20 21.73516 116.67714 34239 ft 549 kts 91°
2026-05-05 09:21 21.73475 116.71820 34445 ft 549 kts 91°
2026-05-05 09:21 21.73562 116.75917 34630 ft 548 kts 84°
2026-05-05 09:21 21.74188 116.79955 34815 ft 547 kts 73°
2026-05-05 09:22 21.76630 116.87659 34966 ft 548 kts 67°
2026-05-05 09:22 21.78026 116.91520 35200 ft 546 kts 66°
2026-05-05 09:22 21.79410 116.95267 35411 ft 545 kts 66°
2026-05-05 09:22 21.80810 116.99047 35579 ft 544 kts 66°
2026-05-05 09:23 21.82205 117.02838 35754 ft 544 kts 66°
2026-05-05 09:23 21.83588 117.06624 35902 ft 544 kts 66°
2026-05-05 09:23 21.84969 117.10428 35960 ft 546 kts 66°
2026-05-05 09:24 21.87729 117.18079 35961 ft 551 kts 66°
2026-05-05 09:24 21.90494 117.25773 35972 ft 549 kts 66°
2026-05-05 09:25 21.93247 117.33447 35970 ft 549 kts 66°
2026-05-05 09:25 21.95985 117.41085 35975 ft 551 kts 66°
2026-05-05 09:26 21.98800 117.48770 35959 ft 550 kts 62°
2026-05-05 09:26 22.02518 117.55929 35974 ft 547 kts 56°
2026-05-05 09:27 22.06476 117.62931 35973 ft 546 kts 55°
2026-05-05 09:27 22.10469 117.69915 35978 ft 547 kts 55°
2026-05-05 09:28 22.14444 117.76901 35975 ft 547 kts 55°
2026-05-05 09:28 22.18416 117.83915 35975 ft 549 kts 55°
2026-05-05 09:29 22.22394 117.90957 35978 ft 550 kts 55°
2026-05-05 09:29 22.26368 117.98002 35979 ft 550 kts 55°
2026-05-05 09:30 22.30345 118.04992 35986 ft 549 kts 54°
2026-05-05 09:30 22.34433 118.11967 35981 ft 549 kts 54°
2026-05-05 09:31 22.38524 118.18938 35994 ft 550 kts 54°
2026-05-05 09:31 22.42605 118.25973 35982 ft 553 kts 55°
2026-05-05 09:32 22.46617 118.33072 35982 ft 553 kts 55°
2026-05-05 09:32 22.50621 118.40191 35980 ft 553 kts 55°
2026-05-05 09:33 22.54593 118.47237 35983 ft 552 kts 55°
2026-05-05 09:33 22.58596 118.54333 35982 ft 552 kts 55°
2026-05-05 09:34 22.62622 118.61398 35986 ft 552 kts 55°
2026-05-05 09:34 22.66661 118.68468 35980 ft 552 kts 55°
2026-05-05 09:35 22.70685 118.75537 35982 ft 551 kts 55°
2026-05-05 09:35 22.76708 118.86154 35987 ft 551 kts 55°
2026-05-05 09:36 22.80723 118.93244 35995 ft 552 kts 55°
2026-05-05 09:36 22.84716 119.00302 35987 ft 554 kts 55°
2026-05-05 09:37 22.88741 119.07429 35988 ft 554 kts 55°
2026-05-05 09:37 22.92759 119.14557 35985 ft 554 kts 55°
2026-05-05 09:38 22.96776 119.21688 35988 ft 554 kts 55°
2026-05-05 09:38 23.00789 119.28823 36006 ft 554 kts 56°
2026-05-05 09:39 23.04803 119.35969 35988 ft 556 kts 56°
2026-05-05 09:39 23.08828 119.43146 35985 ft 556 kts 56°
2026-05-05 09:40 23.12847 119.50324 35984 ft 556 kts 56°
2026-05-05 09:40 23.16866 119.57509 35989 ft 556 kts 56°
2026-05-05 09:41 23.20871 119.64689 36010 ft 555 kts 56°
2026-05-05 09:41 23.24888 119.71878 35986 ft 558 kts 56°
2026-05-05 09:42 23.28236 119.77878 35984 ft 558 kts 56°
2026-05-05 09:42 23.32918 119.86284 35985 ft 558 kts 56°
2026-05-05 09:43 23.36490 119.92176 35985 ft 553 kts 46°
2026-05-05 09:43 23.41801 119.98158 36012 ft 549 kts 39°
2026-05-05 09:44 23.47311 120.03842 35990 ft 550 kts 38°
2026-05-05 09:44 23.52903 120.09543 35988 ft 551 kts 38°
2026-05-05 09:45 23.58485 120.15273 35987 ft 551 kts 39°
2026-05-05 09:45 23.64047 120.21016 35994 ft 551 kts 39°
2026-05-05 09:46 23.69611 120.26774 35990 ft 552 kts 39°
2026-05-05 09:46 23.75189 120.32552 35998 ft 553 kts 39°
2026-05-05 09:47 23.80771 120.38341 36001 ft 553 kts 39°
2026-05-05 09:47 23.86352 120.44137 36009 ft 553 kts 39°
2026-05-05 09:48 23.91927 120.49934 36014 ft 554 kts 39°
2026-05-05 09:48 23.97457 120.55749 36016 ft 555 kts 39°
2026-05-05 09:49 24.03006 120.61623 36018 ft 555 kts 39°
2026-05-05 09:49 24.08560 120.67498 36022 ft 555 kts 39°
2026-05-05 09:50 24.14122 120.73383 36023 ft 558 kts 39°
2026-05-05 09:50 24.19685 120.79274 36026 ft 559 kts 39°
2026-05-05 09:51 24.25277 120.85208 36030 ft 559 kts 39°
2026-05-05 09:51 24.30861 120.91138 36035 ft 559 kts 39°
2026-05-05 09:52 24.36439 120.97088 36025 ft 559 kts 39°
2026-05-05 09:52 24.41911 121.03176 36037 ft 563 kts 46°
2026-05-05 09:53 24.46901 121.09833 36044 ft 565 kts 48°
2026-05-05 09:53 24.51801 121.16604 36034 ft 567 kts 48°
2026-05-05 09:54 24.56691 121.23390 36038 ft 565 kts 48°
2026-05-05 09:54 24.61588 121.30152 36037 ft 566 kts 48°
2026-05-05 09:55 24.66479 121.36926 36059 ft 565 kts 48°
2026-05-05 09:55 24.71339 121.43664 36025 ft 565 kts 48°
2026-05-05 09:56 24.76221 121.50444 36023 ft 565 kts 48°
2026-05-05 09:56 24.81103 121.57232 36012 ft 566 kts 48°
2026-05-05 09:57 24.85992 121.64039 36005 ft 567 kts 48°
2026-05-05 09:57 24.90894 121.70860 36004 ft 568 kts 47°
2026-05-05 09:58 24.96001 121.77455 36004 ft 565 kts 45°
2026-05-05 09:58 25.01162 121.83908 36013 ft 566 kts 45°
2026-05-05 09:59 25.06365 121.90438 36011 ft 567 kts 45°
2026-05-05 09:59 25.11543 121.97032 36022 ft 568 kts 45°
2026-05-05 10:00 25.16688 122.03660 36033 ft 569 kts 46°
2026-05-05 10:00 25.21813 122.10323 36023 ft 569 kts 46°
2026-05-05 10:01 25.26943 122.16996 36031 ft 569 kts 46°
2026-05-05 10:01 25.32062 122.23656 36027 ft 569 kts 46°
2026-05-05 10:02 25.37186 122.30328 36026 ft 569 kts 46°
2026-05-05 10:02 25.42308 122.37007 36028 ft 569 kts 46°
2026-05-05 10:03 25.47433 122.43700 36024 ft 570 kts 46°
2026-05-05 10:03 25.52548 122.50396 36038 ft 570 kts 46°
2026-05-05 10:04 25.57683 122.57077 36032 ft 569 kts 46°
2026-05-05 10:04 25.62826 122.63747 36024 ft 569 kts 46°
2026-05-05 10:05 25.67963 122.70429 36037 ft 569 kts 46°
2026-05-05 10:05 25.73096 122.77124 36036 ft 569 kts 46°
2026-05-05 10:06 25.78188 122.83778 36043 ft 569 kts 46°
2026-05-05 10:06 25.83305 122.90477 36038 ft 568 kts 46°
2026-05-05 10:07 25.88407 122.97165 36045 ft 567 kts 46°
2026-05-05 10:07 25.93497 123.03855 36076 ft 567 kts 47°
2026-05-05 10:08 25.98600 123.10565 36051 ft 569 kts 47°
2026-05-05 10:08 26.03709 123.17290 36045 ft 569 kts 47°
2026-05-05 10:09 26.08797 123.24000 36056 ft 566 kts 47°
2026-05-05 10:09 26.13871 123.30704 36073 ft 566 kts 48°
2026-05-05 10:10 26.18966 123.37445 36061 ft 571 kts 48°
2026-05-05 10:10 26.24051 123.44185 36061 ft 572 kts 48°
2026-05-05 10:11 26.29161 123.50967 36064 ft 572 kts 48°
2026-05-05 10:11 26.34275 123.57765 36071 ft 574 kts 48°
2026-05-05 10:12 26.39442 123.64641 36054 ft 581 kts 48°
2026-05-05 10:12 26.44630 123.71557 36059 ft 579 kts 48°
2026-05-05 10:13 26.49772 123.78426 36065 ft 575 kts 48°
2026-05-05 10:13 26.54914 123.85305 36065 ft 579 kts 48°
2026-05-05 10:14 26.60101 123.92249 36063 ft 583 kts 48°
2026-05-05 10:14 26.65283 123.99201 36070 ft 581 kts 48°
2026-05-05 10:15 26.70455 124.06147 36068 ft 581 kts 48°
2026-05-05 10:15 26.75642 124.13081 36070 ft 581 kts 48°
2026-05-05 10:16 26.80820 124.20013 36072 ft 581 kts 48°
2026-05-05 10:16 26.85986 124.26951 36072 ft 579 kts 48°
2026-05-05 10:17 26.91108 124.33841 36072 ft 580 kts 47°
2026-05-05 10:17 26.96273 124.40799 36083 ft 581 kts 48°
2026-05-05 10:18 27.01431 124.47767 36055 ft 581 kts 48°
2026-05-05 10:18 27.06592 124.54735 36096 ft 580 kts 47°
2026-05-05 10:19 27.11760 124.61718 36078 ft 582 kts 48°
2026-05-05 10:19 27.16935 124.68726 36082 ft 583 kts 48°
2026-05-05 10:20 27.22107 124.75745 36067 ft 583 kts 48°
2026-05-05 10:20 27.27279 124.82774 36081 ft 584 kts 48°
2026-05-05 10:21 27.32455 124.89820 36080 ft 584 kts 48°
2026-05-05 10:21 27.37592 124.96826 36081 ft 584 kts 48°
2026-05-05 10:22 27.42768 125.03887 36101 ft 585 kts 48°
2026-05-05 10:22 27.47987 125.10919 36084 ft 585 kts 47°
2026-05-05 10:23 27.53217 125.17956 36086 ft 585 kts 47°
2026-05-05 10:23 27.58428 125.24997 36062 ft 585 kts 48°
2026-05-05 10:24 27.63641 125.32063 36090 ft 586 kts 48°
2026-05-05 10:24 27.68858 125.39149 36088 ft 587 kts 48°
2026-05-05 10:25 27.74077 125.46249 36089 ft 587 kts 48°
2026-05-05 10:25 27.79287 125.53349 36090 ft 587 kts 48°
2026-05-05 10:26 27.84506 125.60470 36089 ft 588 kts 48°
2026-05-05 10:26 27.89682 125.67546 36090 ft 588 kts 48°
2026-05-05 10:27 27.94927 125.74728 36114 ft 588 kts 48°
2026-05-05 10:27 28.00096 125.81818 36094 ft 587 kts 48°
2026-05-05 10:28 28.05294 125.88960 36096 ft 587 kts 48°
2026-05-05 10:28 28.10489 125.96108 36097 ft 587 kts 48°
2026-05-05 10:29 28.15679 126.03261 36096 ft 588 kts 48°
2026-05-05 10:29 28.20868 126.10426 36095 ft 588 kts 48°
2026-05-05 10:30 28.26061 126.17609 36101 ft 588 kts 48°
2026-05-05 10:30 28.31221 126.24757 36102 ft 590 kts 48°
2026-05-05 10:31 28.36412 126.31960 36105 ft 589 kts 49°
2026-05-05 10:31 28.40760 126.38005 36101 ft 589 kts 49°
2026-05-05 10:32 28.45937 126.45213 36103 ft 589 kts 49°
2026-05-05 10:32 28.51113 126.52431 36113 ft 589 kts 49°
2026-05-05 10:33 28.56252 126.59609 36096 ft 588 kts 49°
2026-05-05 10:33 28.61410 126.66827 36155 ft 588 kts 49°
2026-05-05 10:34 28.66582 126.74077 36109 ft 590 kts 49°
2026-05-05 10:34 28.71750 126.81334 36104 ft 590 kts 49°
2026-05-05 10:35 28.76912 126.88596 36109 ft 589 kts 49°
2026-05-05 10:35 28.82072 126.95867 36112 ft 590 kts 49°
2026-05-05 10:36 28.87236 127.03156 36106 ft 590 kts 49°
2026-05-05 10:36 28.92388 127.10441 36106 ft 590 kts 49°
2026-05-05 10:37 28.97512 127.17699 36108 ft 591 kts 49°
2026-05-05 10:37 29.02665 127.25011 36098 ft 591 kts 49°
2026-05-05 10:38 29.07819 127.32338 36106 ft 590 kts 49°
2026-05-05 10:38 29.12956 127.39653 36108 ft 590 kts 49°
2026-05-05 10:39 29.18098 127.46989 36110 ft 591 kts 49°
2026-05-05 10:39 29.23234 127.54329 36113 ft 590 kts 49°
2026-05-05 10:40 29.28363 127.61671 36119 ft 590 kts 49°
2026-05-05 10:40 29.33502 127.69041 36115 ft 592 kts 49°
2026-05-05 10:41 29.38633 127.76413 36119 ft 591 kts 49°
2026-05-05 10:41 29.43728 127.83747 36120 ft 592 kts 49°
2026-05-05 10:42 29.51433 127.94862 36121 ft 593 kts 49°
2026-05-05 10:43 29.56562 128.02279 36161 ft 593 kts 50°
2026-05-05 10:43 29.61699 128.09709 36124 ft 594 kts 50°
2026-05-05 10:44 29.66845 128.17164 36126 ft 595 kts 50°
2026-05-05 10:44 29.71982 128.24624 36143 ft 595 kts 50°
2026-05-05 10:45 29.77113 128.32090 36125 ft 595 kts 50°
2026-05-05 10:45 29.82244 128.39569 36124 ft 595 kts 50°
2026-05-05 10:46 29.87375 128.47062 36162 ft 595 kts 49°
2026-05-05 10:46 29.92469 128.54515 36128 ft 595 kts 49°
2026-05-05 10:47 29.97588 128.62017 36125 ft 595 kts 50°
2026-05-05 10:47 30.02702 128.69525 36121 ft 595 kts 50°
2026-05-05 10:48 30.07813 128.77044 36124 ft 595 kts 50°
2026-05-05 10:48 30.12920 128.84573 36127 ft 596 kts 50°
2026-05-05 10:49 30.18027 128.92113 36133 ft 596 kts 50°
2026-05-05 10:49 30.23126 128.99658 36132 ft 596 kts 50°
2026-05-05 10:50 30.28227 129.07214 36136 ft 596 kts 50°
2026-05-05 10:50 30.33323 129.14786 36138 ft 596 kts 50°
2026-05-05 10:51 30.38416 129.22366 36135 ft 596 kts 50°
2026-05-05 10:51 30.43505 129.29955 36138 ft 597 kts 50°
2026-05-05 10:52 30.48595 129.37557 36138 ft 597 kts 50°
2026-05-05 10:52 30.53681 129.45169 36141 ft 597 kts 50°
2026-05-05 10:53 30.58759 129.52783 36127 ft 597 kts 50°
2026-05-05 10:53 30.63804 129.60363 36137 ft 597 kts 50°
2026-05-05 10:54 30.68872 129.67992 36123 ft 596 kts 50°
2026-05-05 10:54 30.73938 129.75633 36155 ft 596 kts 50°
2026-05-05 10:55 30.78998 129.83278 36132 ft 596 kts 50°
2026-05-05 10:55 30.84006 129.90944 36141 ft 595 kts 55°
2026-05-05 10:56 30.88491 129.99062 36140 ft 596 kts 57°
2026-05-05 10:56 30.92860 130.07262 36149 ft 596 kts 57°
2026-05-05 10:57 30.97202 130.15489 36152 ft 595 kts 58°
2026-05-05 10:57 31.01539 130.23705 36153 ft 595 kts 57°
2026-05-05 10:58 31.05890 130.31941 36156 ft 596 kts 57°
2026-05-05 10:58 31.10210 130.40133 36145 ft 597 kts 58°
2026-05-05 10:59 31.14556 130.48392 36143 ft 597 kts 58°
2026-05-05 10:59 31.18901 130.56668 36164 ft 598 kts 58°
2026-05-05 11:00 31.23249 130.64961 36168 ft 599 kts 58°
2026-05-05 11:00 31.27592 130.73272 36175 ft 598 kts 58°
2026-05-05 11:01 31.31925 130.81585 36173 ft 598 kts 58°
2026-05-05 11:01 31.36249 130.89898 36176 ft 598 kts 58°
2026-05-05 11:02 31.40572 130.98220 36180 ft 599 kts 58°
2026-05-05 11:02 31.44880 131.06531 36195 ft 600 kts 58°
2026-05-05 11:03 31.49203 131.14891 36213 ft 600 kts 58°
2026-05-05 11:03 31.53523 131.23266 36183 ft 600 kts 58°
2026-05-05 11:04 31.57841 131.31649 36182 ft 600 kts 58°
2026-05-05 11:04 31.62153 131.40029 36190 ft 600 kts 58°
2026-05-05 11:05 31.66458 131.48434 36154 ft 601 kts 58°
2026-05-05 11:05 31.70722 131.56793 36125 ft 600 kts 58°
2026-05-05 11:06 31.75010 131.65212 36158 ft 600 kts 58°
2026-05-05 11:06 31.79297 131.73642 36163 ft 601 kts 58°
2026-05-05 11:07 31.83578 131.82075 36172 ft 601 kts 58°
2026-05-05 11:07 31.87856 131.90521 36184 ft 601 kts 59°
2026-05-05 11:08 31.92128 131.98976 36165 ft 601 kts 59°
2026-05-05 11:08 31.96397 132.07445 36202 ft 601 kts 59°
2026-05-05 11:09 32.00660 132.15919 36188 ft 601 kts 59°
2026-05-05 11:09 32.04893 132.24351 36189 ft 602 kts 59°
2026-05-05 11:10 32.09150 132.32852 36195 ft 602 kts 59°
2026-05-05 11:10 32.13396 132.41360 36169 ft 602 kts 59°
2026-05-05 11:11 32.17275 132.50155 36195 ft 603 kts 64°
2026-05-05 11:11 32.20892 132.59087 36197 ft 603 kts 65°
2026-05-05 11:12 32.24556 132.68004 36194 ft 603 kts 64°
2026-05-05 11:12 32.28264 132.76835 36204 ft 603 kts 64°
2026-05-05 11:13 32.32005 132.85701 36194 ft 603 kts 64°
2026-05-05 11:13 32.35741 132.94587 36197 ft 603 kts 64°
2026-05-05 11:14 32.39465 133.03483 36185 ft 603 kts 64°
2026-05-05 11:14 32.43187 133.12402 36203 ft 604 kts 64°
2026-05-05 11:15 32.46903 133.21327 36205 ft 604 kts 64°
2026-05-05 11:15 32.50608 133.30248 36205 ft 603 kts 64°
2026-05-05 11:16 32.54303 133.39167 36209 ft 603 kts 64°
2026-05-05 11:16 32.57995 133.48092 36226 ft 602 kts 64°
2026-05-05 11:17 32.61680 133.57027 36211 ft 603 kts 64°
2026-05-05 11:17 32.65353 133.65980 36201 ft 603 kts 64°
2026-05-05 11:18 32.68998 133.74866 36218 ft 603 kts 64°
2026-05-05 11:18 32.72668 133.83827 36190 ft 603 kts 64°
2026-05-05 11:19 32.76327 133.92788 36253 ft 602 kts 64°
2026-05-05 11:19 32.79978 134.01754 36214 ft 604 kts 64°
2026-05-05 11:20 32.83113 134.10980 36212 ft 601 kts 74°
2026-05-05 11:20 32.85584 134.20471 36221 ft 601 kts 76°
2026-05-05 11:21 32.87541 134.28405 36212 ft 602 kts 76°
2026-05-05 11:21 32.89883 134.37969 36214 ft 602 kts 76°
2026-05-05 11:22 32.92236 134.47524 36223 ft 601 kts 76°
2026-05-05 11:22 32.94594 134.57080 36216 ft 602 kts 76°
2026-05-05 11:23 32.96947 134.66645 36216 ft 601 kts 76°
2026-05-05 11:23 32.99282 134.76182 36231 ft 599 kts 76°
2026-05-05 11:24 33.00772 134.85915 36221 ft 597 kts 85°
2026-05-05 11:24 33.01880 134.95724 36224 ft 597 kts 87°
2026-05-05 11:25 33.02914 135.05535 36227 ft 596 kts 86°
2026-05-05 11:25 33.03941 135.15265 36230 ft 595 kts 86°
2026-05-05 11:26 33.04977 135.25038 36233 ft 595 kts 86°
2026-05-05 11:26 33.06016 135.34823 36235 ft 595 kts 86°
2026-05-05 11:27 33.07047 135.44603 36236 ft 595 kts 86°
2026-05-05 11:27 33.08068 135.54386 36235 ft 594 kts 86°
2026-05-05 11:28 33.09081 135.64157 36239 ft 594 kts 86°
2026-05-05 11:28 33.10090 135.73937 36238 ft 594 kts 86°
2026-05-05 11:29 33.11082 135.83707 36240 ft 594 kts 86°
2026-05-05 11:29 33.12068 135.93489 36241 ft 593 kts 86°
2026-05-05 11:30 33.13047 136.03265 36243 ft 594 kts 87°
2026-05-05 11:30 33.14015 136.12998 36243 ft 593 kts 86°
2026-05-05 11:31 33.14980 136.22779 36243 ft 593 kts 86°
2026-05-05 11:31 33.15937 136.32553 36243 ft 593 kts 87°
2026-05-05 11:32 33.16886 136.42336 36246 ft 593 kts 87°
2026-05-05 11:32 33.17829 136.52131 36243 ft 594 kts 87°
2026-05-05 11:33 33.18764 136.61935 36212 ft 594 kts 87°
2026-05-05 11:33 33.19690 136.71726 36242 ft 593 kts 87°
2026-05-05 11:34 33.20608 136.81525 36249 ft 593 kts 87°
2026-05-05 11:34 33.21512 136.91251 36246 ft 594 kts 87°
2026-05-05 11:35 33.22415 137.01049 36247 ft 594 kts 87°
2026-05-05 11:35 33.23610 137.10827 36251 ft 597 kts 76°
2026-05-05 11:36 33.25832 137.20404 36244 ft 598 kts 75°
2026-05-05 11:36 33.28223 137.29914 36219 ft 598 kts 74°
2026-05-05 11:37 33.30632 137.39430 36250 ft 597 kts 74°
2026-05-05 11:37 33.33007 137.48944 36249 ft 597 kts 74°
2026-05-05 11:38 33.35361 137.58466 36231 ft 597 kts 75°
2026-05-05 11:38 33.37703 137.67989 36251 ft 597 kts 75°
2026-05-05 11:39 33.40026 137.77460 36249 ft 597 kts 75°
2026-05-05 11:39 33.42360 137.86988 36244 ft 596 kts 74°
2026-05-05 11:39 33.43846 137.91615 36247 ft 596 kts 62°
2026-05-05 11:40 33.45819 137.95967 36249 ft 594 kts 58°
2026-05-05 11:40 33.50062 138.04460 36259 ft 594 kts 56°
2026-05-05 11:41 33.54439 138.12880 36242 ft 595 kts 56°
2026-05-05 11:41 33.58803 138.21304 36249 ft 595 kts 56°
2026-05-05 11:42 33.63141 138.29767 36261 ft 595 kts 56°
2026-05-05 11:42 33.67459 138.38241 36260 ft 595 kts 56°
2026-05-05 11:43 33.71778 138.46738 36263 ft 596 kts 56°
2026-05-05 11:43 33.76083 138.55234 36265 ft 596 kts 56°
2026-05-05 11:44 33.80368 138.63693 36267 ft 596 kts 56°
2026-05-05 11:44 33.84675 138.72208 36270 ft 596 kts 56°
2026-05-05 11:45 33.88979 138.80742 36272 ft 596 kts 56°
2026-05-05 11:45 33.93272 138.89277 36280 ft 596 kts 56°
2026-05-05 11:46 33.97564 138.97833 36275 ft 596 kts 57°
2026-05-05 11:46 34.01853 139.06408 36287 ft 597 kts 56°
2026-05-05 11:47 34.06148 139.15011 36283 ft 599 kts 56°
2026-05-05 11:47 34.10440 139.23625 36284 ft 599 kts 57°
2026-05-05 11:48 34.16834 139.36507 36284 ft 599 kts 57°
2026-05-05 11:48 34.21116 139.45147 36287 ft 599 kts 57°
2026-05-05 11:49 34.25388 139.53789 36293 ft 599 kts 57°
2026-05-05 11:49 34.29658 139.62451 36289 ft 600 kts 57°
2026-05-05 11:50 34.33920 139.71121 36289 ft 600 kts 57°
2026-05-05 11:50 34.38176 139.79801 36291 ft 600 kts 57°
2026-05-05 11:51 34.42435 139.88507 36289 ft 601 kts 57°
2026-05-05 11:51 34.46692 139.97229 36304 ft 601 kts 57°
2026-05-05 11:52 34.50950 140.05973 36290 ft 602 kts 57°
2026-05-05 11:52 34.55203 140.14730 36289 ft 603 kts 57°
2026-05-05 11:53 34.59448 140.23496 36291 ft 603 kts 57°
2026-05-05 11:53 34.63689 140.32273 36295 ft 603 kts 57°
2026-05-05 11:54 34.67898 140.41005 36295 ft 603 kts 57°
2026-05-05 11:54 34.72113 140.49824 36301 ft 604 kts 58°
2026-05-05 11:55 34.76208 140.58745 36304 ft 604 kts 58°
2026-05-05 11:55 34.80274 140.67697 36309 ft 605 kts 58°
2026-05-05 11:56 34.84363 140.76665 36304 ft 606 kts 58°
2026-05-05 11:56 34.88466 140.85645 36308 ft 606 kts 58°
2026-05-05 11:57 34.92559 140.94622 36320 ft 607 kts 58°
2026-05-05 11:57 34.96655 141.03629 36306 ft 607 kts 58°
2026-05-05 11:58 35.00717 141.12592 36316 ft 607 kts 58°
2026-05-05 11:58 35.04798 141.21620 36332 ft 608 kts 58°
2026-05-05 11:59 35.08875 141.30665 36336 ft 608 kts 58°
2026-05-05 11:59 35.12949 141.39726 36321 ft 611 kts 58°
2026-05-05 12:00 35.17038 141.48842 36323 ft 611 kts 58°
2026-05-05 12:00 35.21119 141.57964 36322 ft 612 kts 58°
2026-05-05 12:01 35.25202 141.67114 36322 ft 612 kts 58°
2026-05-05 12:01 35.29271 141.76261 36324 ft 612 kts 58°
2026-05-05 12:02 35.33311 141.85367 36327 ft 613 kts 58°
2026-05-05 12:02 35.37375 141.94550 36324 ft 613 kts 58°
2026-05-05 12:03 35.41434 142.03748 36325 ft 613 kts 58°
2026-05-05 12:03 35.45490 142.12963 36327 ft 614 kts 58°
2026-05-05 12:04 35.49540 142.22192 36325 ft 614 kts 58°
2026-05-05 12:04 35.53581 142.31424 36332 ft 614 kts 58°
2026-05-05 12:05 35.57621 142.40677 36327 ft 615 kts 58°
2026-05-05 12:05 35.61661 142.49959 36330 ft 615 kts 58°
2026-05-05 12:06 35.65689 142.59239 36331 ft 616 kts 58°
2026-05-05 12:06 35.69689 142.68480 36330 ft 617 kts 58°
2026-05-05 12:07 35.73716 142.77808 36345 ft 617 kts 58°
2026-05-05 12:07 35.77733 142.87141 36330 ft 618 kts 58°
2026-05-05 12:08 35.81752 142.96501 36330 ft 618 kts 58°
2026-05-05 12:08 35.85759 143.05864 36331 ft 618 kts 58°
2026-05-05 12:09 35.89768 143.15255 36330 ft 619 kts 58°
2026-05-05 12:09 35.92998 143.25088 36330 ft 622 kts 79°
2026-05-05 12:10 35.94228 143.33834 36331 ft 623 kts 83°
2026-05-05 12:10 35.95499 143.46158 36330 ft 623 kts 85°
2026-05-05 12:11 35.96505 143.56779 36326 ft 624 kts 85°
2026-05-05 12:11 35.97548 143.67413 36338 ft 624 kts 84°
2026-05-05 12:12 35.98443 143.76332 36334 ft 624 kts 84°
2026-05-05 12:12 35.99509 143.86969 36329 ft 624 kts 85°
2026-05-05 12:13 36.00561 143.97601 36333 ft 623 kts 85°
2026-05-05 12:13 36.01594 144.08168 36338 ft 623 kts 85°
2026-05-05 12:14 36.02621 144.18794 36333 ft 623 kts 85°
2026-05-05 12:14 36.03641 144.29437 36342 ft 624 kts 85°
2026-05-05 12:15 36.04652 144.40084 36342 ft 624 kts 85°
2026-05-05 12:15 36.05655 144.50752 36356 ft 624 kts 85°
2026-05-05 12:16 36.06648 144.61420 36336 ft 626 kts 85°
2026-05-05 12:16 36.07632 144.72079 36341 ft 623 kts 85°
2026-05-05 12:17 36.08603 144.82712 36346 ft 623 kts 85°
2026-05-05 12:17 36.09566 144.93361 36342 ft 623 kts 85°
2026-05-05 12:18 36.10514 145.03953 36352 ft 624 kts 85°
2026-05-05 12:18 36.11459 145.14622 36343 ft 625 kts 85°
2026-05-05 12:19 36.12397 145.25315 36344 ft 625 kts 85°
2026-05-05 12:19 36.13325 145.36013 36343 ft 626 kts 86°
2026-05-05 12:20 36.14839 145.46598 36344 ft 626 kts 69°
2026-05-05 12:20 36.18561 145.56242 36351 ft 621 kts 57°
2026-05-05 12:21 36.22827 145.65542 36345 ft 621 kts 55°
2026-05-05 12:21 36.27184 145.74778 36342 ft 621 kts 55°
2026-05-05 12:22 36.31504 145.84066 36339 ft 622 kts 56°
2026-05-05 12:22 36.35754 145.93334 36358 ft 622 kts 56°
2026-05-05 12:23 36.40042 146.02744 36339 ft 622 kts 56°
2026-05-05 12:23 36.44270 146.12038 36337 ft 623 kts 56°
2026-05-05 12:24 36.48526 146.21410 36356 ft 623 kts 56°
2026-05-05 12:24 36.52775 146.30790 36339 ft 623 kts 56°
2026-05-05 12:25 36.57016 146.40180 36352 ft 623 kts 56°
2026-05-05 12:25 36.61253 146.49590 36345 ft 623 kts 56°
2026-05-05 12:26 36.65484 146.59013 36345 ft 623 kts 56°
2026-05-05 12:26 36.69708 146.68445 36343 ft 623 kts 56°
2026-05-05 12:27 36.73926 146.77893 36348 ft 623 kts 57°
2026-05-05 12:27 36.78135 146.87348 36355 ft 624 kts 57°
2026-05-05 12:28 36.82346 146.96831 36346 ft 625 kts 57°
2026-05-05 12:28 36.86550 147.06329 36369 ft 625 kts 56°
2026-05-05 12:29 36.90720 147.15777 36346 ft 626 kts 57°
2026-05-05 12:29 36.94919 147.25321 36347 ft 626 kts 57°
2026-05-05 12:30 36.99110 147.34874 36346 ft 626 kts 57°
2026-05-05 12:30 37.03292 147.44430 36345 ft 626 kts 57°
2026-05-05 12:31 37.07469 147.54007 36343 ft 626 kts 57°
2026-05-05 12:31 37.11641 147.63598 36345 ft 627 kts 57°
2026-05-05 12:32 37.15799 147.73186 36343 ft 626 kts 57°
2026-05-05 12:32 37.19957 147.82804 36343 ft 627 kts 57°
2026-05-05 12:33 37.24103 147.92421 36344 ft 627 kts 57°
2026-05-05 12:33 37.28240 148.02044 36344 ft 627 kts 57°
2026-05-05 12:34 37.32345 148.11624 36344 ft 627 kts 57°
2026-05-05 12:34 37.36469 148.21276 36361 ft 627 kts 58°
2026-05-05 12:35 37.40587 148.30943 36338 ft 626 kts 58°
2026-05-05 12:35 37.44692 148.40607 36338 ft 626 kts 58°
2026-05-05 12:36 37.48792 148.50290 36340 ft 626 kts 58°
2026-05-05 12:36 37.52872 148.59957 36332 ft 625 kts 58°
2026-05-05 12:37 37.56949 148.69642 36333 ft 623 kts 58°
2026-05-05 12:37 37.60989 148.79275 36338 ft 621 kts 58°
2026-05-05 12:38 37.65020 148.88909 36330 ft 622 kts 58°
2026-05-05 12:38 37.69051 148.98573 36330 ft 622 kts 58°
2026-05-05 12:39 37.73069 149.08238 36324 ft 621 kts 59°
2026-05-05 12:39 37.77082 149.17919 36325 ft 621 kts 59°
2026-05-05 12:40 37.81084 149.27604 36324 ft 621 kts 59°
2026-05-05 12:40 37.85050 149.37230 36325 ft 621 kts 59°
2026-05-05 12:41 37.89034 149.46931 36321 ft 621 kts 59°
2026-05-05 12:41 37.93016 149.56653 36323 ft 621 kts 59°
2026-05-05 12:42 37.96986 149.66379 36323 ft 621 kts 59°
2026-05-05 12:42 38.00945 149.76108 36316 ft 621 kts 59°
2026-05-05 12:43 38.04896 149.85849 36317 ft 621 kts 59°
2026-05-05 12:43 38.08843 149.95603 36318 ft 620 kts 59°
2026-05-05 12:44 38.11086 150.00236 36319 ft 613 kts 47°
2026-05-05 12:44 38.13722 150.04459 36316 ft 609 kts 44°
2026-05-05 12:44 38.19196 150.12638 36318 ft 606 kts 42°
2026-05-05 12:45 38.24751 150.20662 36313 ft 603 kts 42°
2026-05-05 12:45 38.30292 150.28680 36311 ft 603 kts 42°
2026-05-05 12:46 38.35772 150.36686 36311 ft 603 kts 43°
2026-05-05 12:46 38.41271 150.44770 36305 ft 603 kts 43°
2026-05-05 12:47 38.46773 150.52878 36302 ft 605 kts 43°
2026-05-05 12:47 38.52285 150.61018 36330 ft 606 kts 43°
2026-05-05 12:48 38.57767 150.69142 36301 ft 602 kts 43°
2026-05-05 12:48 38.63228 150.77247 36309 ft 602 kts 43°
2026-05-05 12:49 38.68700 150.85385 36302 ft 603 kts 43°
2026-05-05 12:49 38.74127 150.93480 36299 ft 603 kts 43°
2026-05-05 12:50 38.79582 151.01640 36296 ft 603 kts 43°
2026-05-05 12:50 38.85037 151.09817 36347 ft 604 kts 44°
2026-05-05 12:51 38.90484 151.18009 36291 ft 601 kts 44°
2026-05-05 12:51 38.95902 151.26178 36290 ft 600 kts 44°
2026-05-05 12:52 39.01312 151.34352 36288 ft 600 kts 44°
2026-05-05 12:52 39.06733 151.42560 36287 ft 603 kts 44°
2026-05-05 12:53 39.12160 151.50803 36284 ft 603 kts 44°
2026-05-05 12:53 39.17545 151.59007 36281 ft 603 kts 44°
2026-05-05 12:54 39.25647 151.71389 36276 ft 601 kts 44°
2026-05-05 12:55 39.31037 151.79652 36279 ft 601 kts 44°
2026-05-05 12:55 39.36413 151.87914 36276 ft 601 kts 44°
2026-05-05 12:56 39.41782 151.96187 36271 ft 601 kts 45°
2026-05-05 12:56 39.47161 152.04495 36272 ft 603 kts 45°
2026-05-05 12:57 39.52540 152.12829 36270 ft 603 kts 45°
2026-05-05 12:57 39.57901 152.21161 36269 ft 600 kts 45°
2026-05-05 12:58 39.63234 152.29470 36262 ft 598 kts 45°
2026-05-05 12:58 39.68555 152.37776 36262 ft 598 kts 45°
2026-05-05 12:59 39.73877 152.46107 36261 ft 598 kts 45°
2026-05-05 12:59 39.79182 152.54434 36255 ft 599 kts 45°
2026-05-05 13:00 39.86271 152.65593 36252 ft 602 kts 45°
2026-05-05 13:01 39.96918 152.82442 36249 ft 602 kts 45°
2026-05-05 13:01 40.02234 152.90883 36246 ft 602 kts 46°
2026-05-05 13:02 40.07541 152.99335 36243 ft 602 kts 46°
2026-05-05 13:02 40.12850 153.07816 36238 ft 602 kts 46°
2026-05-05 13:03 40.18147 153.16295 36235 ft 603 kts 46°
2026-05-05 13:03 40.23448 153.24807 36233 ft 602 kts 46°
2026-05-05 13:04 40.28684 153.33242 36233 ft 600 kts 46°
2026-05-05 13:04 40.33939 153.41727 36227 ft 600 kts 46°
2026-05-05 13:05 40.39195 153.50230 36223 ft 601 kts 46°
2026-05-05 13:05 40.44459 153.58776 36232 ft 602 kts 46°
2026-05-05 13:06 40.49710 153.67326 36221 ft 602 kts 46°
2026-05-05 13:06 40.54960 153.75895 36232 ft 601 kts 47°
2026-05-05 13:07 40.60184 153.84447 36214 ft 599 kts 47°
2026-05-05 13:07 40.65393 153.92999 36208 ft 599 kts 47°
2026-05-05 13:08 40.70604 154.01577 36209 ft 599 kts 47°
2026-05-05 13:08 40.75774 154.10106 36206 ft 601 kts 47°
2026-05-05 13:09 40.80992 154.18740 36202 ft 602 kts 47°
2026-05-05 13:09 40.86215 154.27412 36224 ft 603 kts 47°
2026-05-05 13:10 40.91410 154.36065 36194 ft 599 kts 47°
2026-05-05 13:10 40.96595 154.44717 36198 ft 601 kts 48°
2026-05-05 13:11 41.01794 154.53418 36189 ft 602 kts 48°
2026-05-05 13:11 41.06983 154.62131 36184 ft 602 kts 48°
2026-05-05 13:12 41.12138 154.70808 36181 ft 603 kts 48°
2026-05-05 13:12 41.17334 154.79578 36181 ft 605 kts 48°
2026-05-05 13:13 41.22524 154.88369 36175 ft 602 kts 49°
2026-05-05 13:13 41.27685 154.97136 36174 ft 601 kts 49°
2026-05-05 13:14 41.32838 155.05908 36178 ft 603 kts 49°
2026-05-05 13:14 41.38001 155.14722 36159 ft 604 kts 49°
2026-05-05 13:15 41.43160 155.23560 36169 ft 604 kts 49°
2026-05-05 13:15 41.48281 155.32358 36166 ft 604 kts 49°
2026-05-05 13:16 41.53420 155.41213 36156 ft 602 kts 49°
2026-05-05 13:16 41.58535 155.50052 36157 ft 600 kts 49°
2026-05-05 13:17 41.63637 155.58891 36157 ft 600 kts 49°
2026-05-05 13:17 41.68736 155.67750 36151 ft 602 kts 50°
2026-05-05 13:18 41.73850 155.76662 36148 ft 603 kts 50°
2026-05-05 13:18 41.78957 155.85589 36146 ft 603 kts 50°
2026-05-05 13:19 41.84050 155.94519 36140 ft 603 kts 50°
2026-05-05 13:19 41.89146 156.03477 36138 ft 604 kts 50°
2026-05-05 13:20 41.94199 156.12390 36132 ft 604 kts 50°
2026-05-05 13:20 41.99286 156.21388 36132 ft 604 kts 50°
2026-05-05 13:21 42.04366 156.30399 36127 ft 606 kts 51°
2026-05-05 13:21 42.09455 156.39454 36124 ft 607 kts 51°
2026-05-05 13:22 42.14547 156.48544 36148 ft 607 kts 51°
2026-05-05 13:22 42.19609 156.57606 36112 ft 604 kts 51°
2026-05-05 13:23 42.24663 156.66681 36112 ft 605 kts 51°
2026-05-05 13:23 42.29718 156.75784 36112 ft 606 kts 51°
2026-05-05 13:24 42.34770 156.84912 36103 ft 606 kts 51°
2026-05-05 13:24 42.39814 156.94049 36100 ft 608 kts 52°
2026-05-05 13:25 42.44843 157.03187 36125 ft 610 kts 52°
2026-05-05 13:25 42.49901 157.12409 36094 ft 608 kts 52°
2026-05-05 13:26 42.54935 157.21619 36090 ft 607 kts 52°
2026-05-05 13:26 42.59978 157.30863 36082 ft 612 kts 52°
2026-05-05 13:27 42.65041 157.40180 36078 ft 614 kts 52°
2026-05-05 13:27 42.70107 157.49535 36075 ft 613 kts 52°
2026-05-05 13:28 42.75165 157.58899 36079 ft 615 kts 52°
2026-05-05 13:28 42.80186 157.68223 36066 ft 612 kts 52°
2026-05-05 13:29 42.85205 157.77579 36064 ft 610 kts 53°
2026-05-05 13:29 42.90215 157.86940 36066 ft 613 kts 53°
2026-05-05 13:30 42.95248 157.96376 36067 ft 616 kts 53°
2026-05-05 13:30 43.00287 158.05856 36062 ft 616 kts 53°
2026-05-05 13:31 43.05321 158.15355 36049 ft 618 kts 53°
2026-05-05 13:31 43.10371 158.24915 36051 ft 620 kts 53°
2026-05-05 13:32 43.15412 158.34489 36051 ft 620 kts 53°
2026-05-05 13:32 43.20455 158.44099 36045 ft 620 kts 53°
2026-05-05 13:33 43.25479 158.53703 36038 ft 620 kts 53°
2026-05-05 13:33 43.30494 158.63320 36011 ft 620 kts 54°
2026-05-05 13:34 43.35493 158.72937 36027 ft 624 kts 54°
2026-05-05 13:34 43.40528 158.82657 36023 ft 621 kts 54°
2026-05-05 13:35 43.45518 158.92322 36006 ft 618 kts 54°
2026-05-05 13:35 43.50509 159.02019 36017 ft 623 kts 54°
2026-05-05 13:36 43.55514 159.11777 36012 ft 623 kts 54°
2026-05-05 13:36 43.60520 159.21568 35996 ft 624 kts 54°
2026-05-05 13:37 43.65539 159.31417 36004 ft 629 kts 55°
2026-05-05 13:37 43.70562 159.41309 36001 ft 626 kts 54°
2026-05-05 13:38 43.75503 159.51070 35996 ft 623 kts 55°
2026-05-05 13:38 43.80481 159.60938 35987 ft 626 kts 55°
2026-05-05 13:39 43.85453 159.70831 35987 ft 626 kts 55°
2026-05-05 13:39 43.90425 159.80754 35978 ft 629 kts 55°
2026-05-05 13:40 43.95416 159.90751 35976 ft 631 kts 56°
2026-05-05 13:40 44.00408 160.00782 35993 ft 631 kts 56°
2026-05-05 13:41 44.05747 160.10387 35967 ft 627 kts 49°
2026-05-05 13:41 44.11429 160.19587 35963 ft 628 kts 48°
2026-05-05 13:42 44.17083 160.28864 35958 ft 628 kts 49°
2026-05-05 13:42 44.22644 160.38270 35950 ft 632 kts 50°
2026-05-05 13:43 44.28212 160.47821 35995 ft 635 kts 50°
2026-05-05 13:43 44.33744 160.57337 35938 ft 628 kts 50°
2026-05-05 13:44 44.39212 160.66748 35937 ft 630 kts 50°
2026-05-05 13:44 44.44741 160.76287 35927 ft 632 kts 50°
2026-05-05 13:45 44.50272 160.85863 35925 ft 632 kts 50°
2026-05-05 13:45 44.55817 160.95494 35988 ft 638 kts 51°
2026-05-05 13:46 44.61367 161.05169 35919 ft 633 kts 51°
2026-05-05 13:46 44.66868 161.14793 35914 ft 631 kts 51°
2026-05-05 13:47 44.72351 161.24418 35906 ft 631 kts 51°
2026-05-05 13:47 44.77796 161.34006 35900 ft 631 kts 51°
2026-05-05 13:48 44.83263 161.43666 35898 ft 630 kts 51°
2026-05-05 13:48 44.88723 161.53340 35893 ft 630 kts 51°
2026-05-05 13:49 44.94166 161.63025 35884 ft 629 kts 51°
2026-05-05 13:49 44.99598 161.72723 35879 ft 629 kts 51°
2026-05-05 13:50 45.04114 161.80809 35874 ft 633 kts 52°
2026-05-05 13:50 45.09590 161.90645 35874 ft 636 kts 52°
2026-05-05 13:51 45.15061 162.00507 35874 ft 633 kts 52°
2026-05-05 13:51 45.20463 162.10274 35857 ft 630 kts 52°
2026-05-05 13:52 45.25887 162.20121 35850 ft 634 kts 52°
2026-05-05 13:52 45.31273 162.29932 35841 ft 634 kts 52°
2026-05-05 13:53 45.36699 162.39846 35835 ft 638 kts 52°
2026-05-05 13:53 45.42163 162.49868 35891 ft 641 kts 52°
2026-05-05 13:54 45.47579 162.59835 35828 ft 632 kts 53°
2026-05-05 13:54 45.52951 162.69757 35823 ft 634 kts 53°
2026-05-05 13:55 45.58375 162.79813 35820 ft 640 kts 53°
2026-05-05 13:55 45.63794 162.89894 35814 ft 640 kts 53°
2026-05-05 13:56 45.69201 162.99985 35811 ft 641 kts 53°
2026-05-05 13:56 45.74614 163.10125 35807 ft 639 kts 53°
2026-05-05 13:57 45.79997 163.20248 35801 ft 638 kts 53°
2026-05-05 13:57 45.85371 163.30389 35795 ft 639 kts 53°
2026-05-05 13:58 45.90757 163.40589 35796 ft 641 kts 53°
2026-05-05 13:58 45.96098 163.50742 35787 ft 641 kts 54°
2026-05-05 13:59 46.04154 163.66121 35788 ft 642 kts 54°
2026-05-05 14:00 46.12188 163.81549 35783 ft 642 kts 54°
2026-05-05 14:00 46.17540 163.91872 35754 ft 642 kts 54°
2026-05-05 14:01 46.22887 164.02222 35773 ft 642 kts 54°
2026-05-05 14:01 46.28215 164.12574 35797 ft 642 kts 54°
2026-05-05 14:02 46.33532 164.22943 35768 ft 642 kts 54°
2026-05-05 14:02 46.38810 164.33273 35760 ft 642 kts 55°
2026-05-05 14:03 46.44111 164.43690 35758 ft 641 kts 55°
2026-05-05 14:03 46.49395 164.54108 35723 ft 641 kts 55°
2026-05-05 14:04 46.54668 164.64546 35747 ft 641 kts 55°
2026-05-05 14:04 46.59933 164.75008 35748 ft 640 kts 55°
2026-05-05 14:05 46.65184 164.85479 35691 ft 640 kts 55°
2026-05-05 14:05 46.70423 164.95966 35730 ft 640 kts 56°
2026-05-05 14:06 46.75619 165.06408 35728 ft 640 kts 56°
2026-05-05 14:06 46.80837 165.16934 35726 ft 640 kts 56°
2026-05-05 14:07 46.86045 165.27480 35741 ft 640 kts 56°
2026-05-05 14:07 46.91244 165.38044 35712 ft 639 kts 56°
2026-05-05 14:08 46.96428 165.48619 35708 ft 639 kts 56°
2026-05-05 14:08 47.01601 165.59215 35709 ft 639 kts 56°
2026-05-05 14:09 47.06755 165.69810 35708 ft 638 kts 56°
2026-05-05 14:09 47.11901 165.80428 35702 ft 638 kts 56°
2026-05-05 14:10 47.17041 165.91078 35693 ft 638 kts 56°
2026-05-05 14:10 47.22126 166.01654 35697 ft 637 kts 56°
2026-05-05 14:11 47.27229 166.12304 35694 ft 637 kts 56°
2026-05-05 14:11 47.32319 166.22971 35662 ft 636 kts 56°
2026-05-05 14:12 47.37386 166.33633 35684 ft 633 kts 56°
2026-05-05 14:12 47.42433 166.44291 35721 ft 633 kts 57°
2026-05-05 14:13 47.47470 166.54972 35643 ft 634 kts 57°
2026-05-05 14:13 47.52502 166.65683 35671 ft 632 kts 57°
2026-05-05 14:14 47.57471 166.76297 35667 ft 631 kts 57°
2026-05-05 14:14 47.62494 166.87073 35667 ft 631 kts 57°
2026-05-05 14:15 47.67436 166.97719 35651 ft 630 kts 57°
2026-05-05 14:15 47.72392 167.08431 35667 ft 629 kts 57°
2026-05-05 14:16 47.77341 167.19171 35647 ft 630 kts 57°
2026-05-05 14:16 47.82281 167.29938 35626 ft 629 kts 57°
2026-05-05 14:17 47.87169 167.40630 35643 ft 627 kts 57°
2026-05-05 14:17 47.92068 167.51387 35636 ft 627 kts 57°
2026-05-05 14:18 47.96960 167.62174 35633 ft 627 kts 58°
2026-05-05 14:18 48.01842 167.72979 35631 ft 627 kts 58°
2026-05-05 14:19 48.06715 167.83810 35625 ft 629 kts 58°
2026-05-05 14:19 48.11585 167.94675 35623 ft 629 kts 58°
2026-05-05 14:20 48.16439 168.05552 35619 ft 627 kts 58°
2026-05-05 14:20 48.21270 168.16416 35618 ft 626 kts 58°
2026-05-05 14:21 48.26088 168.27295 35616 ft 626 kts 58°
2026-05-05 14:21 48.30894 168.38193 35589 ft 626 kts 58°
2026-05-05 14:22 48.35654 168.49028 35619 ft 623 kts 58°
2026-05-05 14:22 48.40419 168.59919 35619 ft 623 kts 58°
2026-05-05 14:23 48.45171 168.70824 35617 ft 623 kts 58°
2026-05-05 14:23 48.49904 168.81735 35624 ft 620 kts 58°
2026-05-05 14:24 48.54609 168.92618 35630 ft 619 kts 58°
2026-05-05 14:24 48.59307 169.03527 35640 ft 620 kts 58°
2026-05-05 14:25 48.64001 169.14480 35627 ft 620 kts 58°
2026-05-05 14:25 48.68671 169.25416 35644 ft 617 kts 58°
2026-05-05 14:26 48.73321 169.36347 35649 ft 617 kts 58°
2026-05-05 14:26 48.77954 169.47285 35646 ft 617 kts 58°
2026-05-05 14:27 48.82577 169.58242 35658 ft 615 kts 58°
2026-05-05 14:27 48.87133 169.69086 35664 ft 613 kts 58°
2026-05-05 14:28 48.91707 169.80021 35669 ft 613 kts 58°
2026-05-05 14:28 48.96273 169.90983 35661 ft 613 kts 58°
2026-05-05 14:29 49.00821 170.01932 35681 ft 611 kts 57°
2026-05-05 14:29 49.05718 170.12523 35689 ft 610 kts 52°
2026-05-05 14:30 49.10845 170.22842 35688 ft 611 kts 52°
2026-05-05 14:30 49.15927 170.33254 35700 ft 610 kts 52°
2026-05-05 14:31 49.20916 170.43727 35712 ft 609 kts 53°
2026-05-05 14:31 49.25870 170.54242 35711 ft 609 kts 53°
2026-05-05 14:32 49.30816 170.64773 35697 ft 609 kts 53°
2026-05-05 14:32 49.35749 170.75303 35739 ft 606 kts 53°
2026-05-05 14:33 49.40620 170.85731 35744 ft 605 kts 53°
2026-05-05 14:33 49.45523 170.96268 35754 ft 607 kts 53°
2026-05-05 14:34 49.50418 171.06834 35752 ft 606 kts 53°
2026-05-05 14:34 49.55282 171.17378 35765 ft 602 kts 53°
2026-05-05 14:35 49.60120 171.27902 35760 ft 602 kts 53°
2026-05-05 14:35 49.64953 171.38455 35828 ft 602 kts 53°
2026-05-05 14:36 49.69785 171.49048 35781 ft 605 kts 53°
2026-05-05 14:36 49.74627 171.59710 35783 ft 606 kts 54°
2026-05-05 14:37 49.79459 171.70392 35801 ft 606 kts 54°
2026-05-05 14:37 49.84282 171.81098 35802 ft 606 kts 54°
2026-05-05 14:38 49.88277 171.90003 35815 ft 604 kts 53°
2026-05-05 14:38 49.93059 172.00693 35847 ft 602 kts 53°
2026-05-05 14:39 49.97831 172.11403 35835 ft 604 kts 54°
2026-05-05 14:39 50.02604 172.22162 35843 ft 604 kts 54°
2026-05-05 14:40 50.07356 172.32920 35850 ft 601 kts 53°
2026-05-05 14:40 50.12078 172.43652 35857 ft 600 kts 53°
2026-05-05 14:41 50.16788 172.54397 35865 ft 600 kts 54°
2026-05-05 14:41 50.21487 172.65165 35851 ft 601 kts 53°
2026-05-05 14:42 50.26171 172.75945 35875 ft 599 kts 53°
2026-05-05 14:42 50.30833 172.86714 35890 ft 598 kts 53°
2026-05-05 14:43 50.35453 172.97425 35889 ft 598 kts 54°
2026-05-05 14:43 50.40095 173.08239 35890 ft 598 kts 53°
2026-05-05 14:44 50.44713 173.19042 35912 ft 595 kts 53°
2026-05-05 14:44 50.49308 173.29830 35911 ft 595 kts 53°
2026-05-05 14:45 50.53902 173.40660 35922 ft 596 kts 53°
2026-05-05 14:45 50.58486 173.51513 35923 ft 595 kts 53°
2026-05-05 14:46 50.63042 173.62350 35938 ft 592 kts 53°
2026-05-05 14:46 50.67574 173.73169 35948 ft 591 kts 53°
2026-05-05 14:47 50.72097 173.84009 35989 ft 592 kts 54°
2026-05-05 14:47 50.76614 173.94885 35951 ft 592 kts 53°
2026-05-05 14:48 50.81103 174.05741 35972 ft 589 kts 53°
2026-05-05 14:48 50.85571 174.16585 35972 ft 588 kts 53°
2026-05-05 14:49 50.90032 174.27456 35985 ft 588 kts 53°
2026-05-05 14:49 50.94451 174.38273 35988 ft 588 kts 53°
2026-05-05 14:50 50.98881 174.49166 36013 ft 586 kts 53°
2026-05-05 14:50 51.03290 174.60047 36007 ft 586 kts 53°
2026-05-05 14:51 51.07694 174.70960 36019 ft 586 kts 53°
2026-05-05 14:51 51.12080 174.81883 36010 ft 586 kts 53°
2026-05-05 14:52 51.16453 174.92818 36028 ft 584 kts 53°
2026-05-05 14:52 51.20812 175.03757 36027 ft 583 kts 53°
2026-05-05 14:53 51.25152 175.14694 36064 ft 584 kts 53°
2026-05-05 14:53 51.29485 175.25664 36039 ft 584 kts 53°
2026-05-05 14:54 51.33769 175.36562 36043 ft 582 kts 53°
2026-05-05 14:54 51.38068 175.47537 36043 ft 582 kts 53°
2026-05-05 14:55 51.42357 175.58532 36048 ft 582 kts 53°
2026-05-05 14:55 51.46635 175.69549 36052 ft 582 kts 53°
2026-05-05 14:56 51.50905 175.80592 36059 ft 582 kts 53°
2026-05-05 14:56 51.55163 175.91653 36060 ft 582 kts 54°
2026-05-05 14:57 51.59409 176.02728 36074 ft 582 kts 54°
2026-05-05 14:57 51.63646 176.13831 36082 ft 582 kts 54°
2026-05-05 14:58 51.67866 176.24944 36089 ft 580 kts 53°
2026-05-05 14:58 51.72040 176.35973 36090 ft 580 kts 53°
2026-05-05 14:59 51.76227 176.47083 36120 ft 580 kts 54°
2026-05-05 14:59 51.80411 176.58236 36104 ft 580 kts 54°
2026-05-05 15:00 51.83879 176.67520 36107 ft 579 kts 53°
2026-05-05 15:00 51.88721 176.80540 36119 ft 577 kts 53°
2026-05-05 15:01 51.92849 176.91690 36124 ft 577 kts 53°
2026-05-05 15:01 51.96968 177.02864 36129 ft 577 kts 53°
2026-05-05 15:02 52.01068 177.14045 36135 ft 576 kts 53°
2026-05-05 15:02 52.05148 177.25216 36135 ft 574 kts 53°
2026-05-05 15:03 52.09213 177.36385 36137 ft 574 kts 53°
2026-05-05 15:03 52.13270 177.47585 36151 ft 574 kts 53°
2026-05-05 15:04 52.17312 177.58801 36153 ft 574 kts 53°
2026-05-05 15:04 52.21311 177.69946 36162 ft 573 kts 53°
2026-05-05 15:05 52.27328 177.86798 36186 ft 573 kts 53°
2026-05-05 15:06 52.31326 177.98061 36174 ft 573 kts 53°
2026-05-05 15:06 52.35303 178.09324 36180 ft 571 kts 52°
2026-05-05 15:07 52.39252 178.20559 36183 ft 568 kts 52°
2026-05-05 15:07 52.43184 178.31777 36183 ft 568 kts 52°
2026-05-05 15:08 52.47103 178.43013 36191 ft 568 kts 53°
2026-05-05 15:08 52.50994 178.54227 36199 ft 568 kts 52°
2026-05-05 15:09 52.54867 178.65450 36197 ft 563 kts 52°
2026-05-05 15:09 52.58712 178.76630 36198 ft 561 kts 52°
2026-05-05 15:10 52.62549 178.87824 36201 ft 561 kts 52°
2026-05-05 15:10 52.66371 178.99032 36200 ft 562 kts 53°
2026-05-05 15:11 52.70170 179.10244 36208 ft 557 kts 52°
2026-05-05 15:11 52.73932 179.21386 36212 ft 555 kts 52°
2026-05-05 15:12 52.77661 179.32461 36220 ft 555 kts 52°
2026-05-05 15:12 52.81387 179.43592 36218 ft 553 kts 52°
2026-05-05 15:13 52.85101 179.54737 36219 ft 551 kts 51°
2026-05-05 15:13 52.88772 179.65813 36231 ft 548 kts 52°
2026-05-05 15:14 52.92432 179.76888 36227 ft 547 kts 52°
2026-05-05 15:14 52.96082 179.87978 36235 ft 548 kts 52°
2026-05-05 15:15 52.99700 179.99030 36235 ft 548 kts 52°
2026-05-05 15:15 53.03200 -179.89652 36235 ft 545 kts 55°
2026-05-05 15:16 53.06420 -179.78304 36249 ft 542 kts 56°
2026-05-05 15:16 53.09618 -179.67042 36239 ft 542 kts 56°
2026-05-05 15:17 53.12884 -179.55655 36242 ft 541 kts 55°
2026-05-05 15:17 53.16112 -179.44412 36240 ft 542 kts 56°
2026-05-05 15:18 53.19354 -179.33070 36244 ft 542 kts 56°
2026-05-05 15:18 53.22589 -179.21692 36240 ft 542 kts 56°
2026-05-05 15:19 53.25807 -179.10317 36262 ft 542 kts 57°
2026-05-05 15:19 53.28997 -178.98969 36247 ft 538 kts 57°
2026-05-05 15:20 53.32156 -178.87681 36248 ft 534 kts 57°
2026-05-05 15:20 53.35287 -178.76443 36249 ft 532 kts 57°
2026-05-05 15:21 53.38404 -178.65215 36249 ft 532 kts 57°
2026-05-05 15:21 53.41511 -178.53967 36255 ft 532 kts 57°
2026-05-05 15:22 53.44612 -178.42682 36276 ft 532 kts 57°
2026-05-05 15:22 53.47675 -178.31459 36256 ft 527 kts 57°
2026-05-05 15:23 53.50714 -178.20284 36256 ft 525 kts 57°
2026-05-05 15:23 53.53731 -178.09142 36255 ft 524 kts 58°
2026-05-05 15:24 53.56721 -177.98048 36257 ft 524 kts 58°
2026-05-05 15:24 53.59717 -177.86877 36253 ft 522 kts 58°
2026-05-05 15:25 53.62678 -177.75763 36256 ft 519 kts 58°
2026-05-05 15:25 53.65627 -177.64655 36255 ft 519 kts 58°
2026-05-05 15:26 53.68567 -177.53532 36260 ft 519 kts 58°
2026-05-05 15:26 53.71496 -177.42396 36260 ft 519 kts 58°
2026-05-05 15:27 53.73934 -177.33076 36262 ft 516 kts 58°
2026-05-05 15:27 53.76804 -177.22036 36256 ft 511 kts 58°
2026-05-05 15:28 53.79640 -177.11098 36260 ft 511 kts 58°
2026-05-05 15:28 53.82487 -177.00076 36263 ft 511 kts 58°
2026-05-05 15:29 53.85324 -176.89028 36266 ft 511 kts 58°
2026-05-05 15:29 53.88151 -176.77960 36259 ft 510 kts 58°
2026-05-05 15:30 53.90947 -176.66947 36263 ft 508 kts 58°
2026-05-05 15:30 53.93729 -176.55950 36264 ft 508 kts 58°
2026-05-05 15:31 53.96488 -176.44993 36267 ft 508 kts 58°
2026-05-05 15:31 53.99273 -176.33873 36265 ft 508 kts 58°
2026-05-05 15:32 54.02005 -176.22909 36267 ft 506 kts 59°
2026-05-05 15:32 54.04732 -176.11904 36267 ft 504 kts 59°
2026-05-05 15:33 54.07449 -176.00898 36266 ft 504 kts 59°
2026-05-05 15:33 54.10160 -175.89858 36266 ft 504 kts 59°
2026-05-05 15:34 54.12857 -175.78815 36262 ft 505 kts 59°
2026-05-05 15:34 54.15543 -175.67759 36265 ft 503 kts 60°
2026-05-05 15:35 54.18206 -175.56752 36266 ft 501 kts 61°
2026-05-05 15:35 54.20851 -175.45758 36265 ft 500 kts 61°
2026-05-05 15:36 54.23484 -175.34754 36265 ft 500 kts 61°
2026-05-05 15:36 54.26105 -175.23745 36265 ft 500 kts 61°
2026-05-05 15:37 54.28717 -175.12720 36265 ft 499 kts 62°
2026-05-05 15:37 54.31304 -175.01737 36263 ft 497 kts 62°
2026-05-05 15:38 54.33865 -174.90820 36263 ft 497 kts 62°
2026-05-05 15:38 54.36433 -174.79818 36262 ft 497 kts 62°
2026-05-05 15:39 54.38990 -174.68803 36273 ft 497 kts 63°
2026-05-05 15:39 54.41527 -174.57809 36269 ft 494 kts 63°
2026-05-05 15:40 54.44040 -174.46867 36262 ft 492 kts 63°
2026-05-05 15:40 54.46543 -174.35920 36262 ft 492 kts 63°
2026-05-05 15:41 54.49036 -174.24956 36260 ft 492 kts 63°
2026-05-05 15:41 54.51519 -174.13983 36259 ft 492 kts 63°
2026-05-05 15:42 54.53992 -174.02989 36261 ft 492 kts 63°
2026-05-05 15:42 54.56441 -173.92050 36260 ft 492 kts 63°
2026-05-05 15:43 54.58893 -173.81032 36263 ft 492 kts 63°
2026-05-05 15:43 54.61339 -173.69991 36262 ft 491 kts 64°
2026-05-05 15:44 54.63765 -173.58975 36260 ft 490 kts 64°
2026-05-05 15:44 54.66174 -173.47982 36269 ft 490 kts 64°
2026-05-05 15:45 54.68572 -173.36975 36260 ft 488 kts 64°
2026-05-05 15:45 54.70935 -173.26078 36257 ft 488 kts 64°
2026-05-05 15:46 54.73306 -173.15085 36250 ft 488 kts 64°
2026-05-05 15:46 54.75668 -173.04078 36249 ft 488 kts 65°
2026-05-05 15:47 54.78023 -172.93039 36271 ft 488 kts 65°
2026-05-05 15:47 54.80360 -172.82020 36254 ft 486 kts 65°
2026-05-05 15:48 54.82681 -172.71023 36247 ft 485 kts 65°
2026-05-05 15:48 54.84988 -172.60030 36247 ft 485 kts 65°
2026-05-05 15:49 54.87284 -172.49034 36245 ft 485 kts 65°
2026-05-05 15:49 54.89572 -172.38017 36248 ft 485 kts 65°
2026-05-05 15:50 54.91835 -172.27059 36241 ft 485 kts 66°
2026-05-05 15:50 54.94101 -172.16020 36243 ft 485 kts 66°
2026-05-05 15:51 54.96357 -172.04972 36236 ft 485 kts 66°
2026-05-05 15:51 54.98604 -171.93907 36235 ft 485 kts 66°
2026-05-05 15:52 55.00839 -171.82835 36233 ft 484 kts 66°
2026-05-05 15:52 55.03062 -171.71764 36235 ft 484 kts 67°
2026-05-05 15:53 55.05281 -171.60656 36230 ft 485 kts 67°
2026-05-05 15:53 55.07486 -171.49548 36230 ft 485 kts 67°
2026-05-05 15:54 55.09684 -171.38413 36225 ft 485 kts 67°
2026-05-05 15:54 55.11870 -171.27279 36225 ft 485 kts 67°
2026-05-05 15:55 55.14048 -171.16117 36228 ft 485 kts 68°
2026-05-05 15:55 55.16199 -171.05035 36217 ft 485 kts 68°
2026-05-05 15:56 55.18372 -170.93768 36222 ft 485 kts 68°
2026-05-05 15:56 55.20507 -170.82637 36219 ft 485 kts 68°
2026-05-05 15:57 55.22642 -170.71435 36217 ft 485 kts 68°
2026-05-05 15:57 55.24771 -170.60206 36216 ft 485 kts 68°
2026-05-05 15:58 55.26888 -170.48972 36216 ft 485 kts 68°
2026-05-05 15:58 55.28998 -170.37708 36211 ft 485 kts 68°
2026-05-05 15:59 55.31095 -170.26444 36211 ft 485 kts 69°
2026-05-05 15:59 55.33182 -170.15167 36206 ft 486 kts 69°
2026-05-05 16:00 55.35259 -170.03875 36207 ft 486 kts 69°
2026-05-05 16:00 55.37326 -169.92573 36215 ft 486 kts 69°
2026-05-05 16:01 55.39384 -169.81247 36190 ft 486 kts 69°
2026-05-05 16:01 55.41431 -169.69914 36185 ft 486 kts 69°
2026-05-05 16:02 55.43467 -169.58575 36204 ft 486 kts 69°
2026-05-05 16:02 55.45479 -169.47296 36200 ft 486 kts 69°
2026-05-05 16:03 55.47494 -169.35932 36206 ft 486 kts 69°
2026-05-05 16:03 55.49500 -169.24548 36184 ft 486 kts 69°
2026-05-05 16:04 55.51504 -169.13158 36181 ft 486 kts 69°
2026-05-05 16:04 55.53611 -169.01822 36190 ft 485 kts 68°
2026-05-05 16:05 55.55737 -168.90521 36184 ft 485 kts 68°
2026-05-05 16:05 55.57841 -168.79183 36181 ft 485 kts 69°
2026-05-05 16:06 55.59923 -168.67824 36172 ft 486 kts 69°
2026-05-05 16:06 55.61980 -168.56512 36170 ft 486 kts 69°
2026-05-05 16:07 55.64040 -168.45114 36172 ft 486 kts 69°
2026-05-05 16:07 55.66090 -168.33703 36170 ft 486 kts 69°
2026-05-05 16:08 55.68131 -168.22275 36166 ft 486 kts 69°
2026-05-05 16:08 55.70160 -168.10842 36166 ft 486 kts 69°
2026-05-05 16:09 55.72178 -167.99397 36164 ft 486 kts 69°
2026-05-05 16:09 55.74186 -167.87942 36162 ft 486 kts 69°
2026-05-05 16:10 55.76184 -167.76463 36156 ft 486 kts 70°
2026-05-05 16:10 55.78171 -167.64982 36157 ft 486 kts 70°
2026-05-05 16:11 55.80147 -167.53489 36171 ft 486 kts 70°
2026-05-05 16:12 55.84060 -167.30504 36153 ft 487 kts 70°
2026-05-05 16:13 55.88911 -167.01590 36142 ft 487 kts 70°
2026-05-05 16:13 55.90833 -166.90003 36157 ft 487 kts 71°
2026-05-05 16:14 55.94329 -166.68724 36135 ft 489 kts 71°
2026-05-05 16:15 55.98107 -166.45421 36128 ft 489 kts 71°
2026-05-05 16:16 56.01843 -166.22067 36124 ft 489 kts 71°
2026-05-05 16:17 56.04623 -166.04477 36120 ft 490 kts 71°
2026-05-05 16:18 56.07368 -165.86926 36112 ft 491 kts 71°
2026-05-05 16:19 56.10101 -165.69268 36108 ft 491 kts 72°
2026-05-05 16:19 56.12815 -165.51544 36102 ft 492 kts 72°
2026-05-05 16:20 56.16399 -165.27835 36099 ft 493 kts 72°
2026-05-05 16:22 56.20816 -164.98133 36101 ft 493 kts 72°
2026-05-05 16:23 56.24310 -164.74239 36080 ft 495 kts 73°
2026-05-05 16:23 56.26905 -164.56262 36075 ft 495 kts 73°
2026-05-05 16:24 56.28609 -164.44338 36069 ft 495 kts 73°
2026-05-05 16:25 56.31162 -164.26310 36064 ft 496 kts 73°
2026-05-05 16:25 56.33693 -164.08231 36059 ft 496 kts 73°
2026-05-05 16:26 56.37035 -163.84029 36047 ft 498 kts 73°
2026-05-05 16:27 56.38692 -163.71886 36046 ft 498 kts 74°
2026-05-05 16:27 56.40336 -163.59724 36034 ft 499 kts 74°
2026-05-05 16:28 56.41971 -163.47533 36035 ft 499 kts 74°
2026-05-05 16:28 56.43596 -163.35330 36024 ft 500 kts 74°
2026-05-05 16:29 56.45209 -163.23113 36026 ft 500 kts 74°
2026-05-05 16:29 56.46800 -163.10966 36016 ft 500 kts 74°
2026-05-05 16:30 56.48388 -162.98723 36028 ft 500 kts 74°
2026-05-05 16:30 56.49967 -162.86464 36009 ft 501 kts 75°
2026-05-05 16:31 56.51540 -162.74163 35997 ft 502 kts 75°
2026-05-05 16:31 56.53098 -162.61847 35992 ft 502 kts 75°
2026-05-05 16:32 56.54644 -162.49510 35995 ft 502 kts 75°
2026-05-05 16:32 56.56182 -162.37134 35980 ft 502 kts 75°
2026-05-05 16:33 56.57706 -162.24772 35980 ft 503 kts 75°
2026-05-05 16:33 56.59222 -162.12377 35976 ft 504 kts 75°
2026-05-05 16:34 56.60726 -161.99961 35979 ft 503 kts 75°
2026-05-05 16:34 56.62217 -161.87528 35974 ft 505 kts 76°
2026-05-05 16:35 56.63700 -161.75044 35959 ft 506 kts 76°
2026-05-05 16:35 56.65172 -161.62558 35958 ft 505 kts 75°
2026-05-05 16:36 56.66623 -161.50139 35940 ft 505 kts 76°
2026-05-05 16:36 56.68067 -161.37645 35946 ft 505 kts 76°
2026-05-05 16:37 56.69501 -161.25133 35935 ft 505 kts 76°
2026-05-05 16:37 56.70922 -161.12613 35942 ft 505 kts 76°
2026-05-05 16:38 56.72329 -161.00071 35921 ft 506 kts 77°
2026-05-05 16:38 56.73725 -160.87514 35922 ft 506 kts 77°
2026-05-05 16:39 56.75114 -160.74937 35917 ft 507 kts 77°
2026-05-05 16:39 56.76491 -160.62335 35907 ft 506 kts 77°
2026-05-05 16:40 56.77849 -160.49742 35906 ft 506 kts 77°
2026-05-05 16:40 56.79197 -160.37135 35905 ft 507 kts 77°
2026-05-05 16:41 56.80520 -160.24592 35888 ft 506 kts 78°
2026-05-05 16:41 56.81780 -160.11955 35880 ft 506 kts 78°
2026-05-05 16:42 56.83012 -159.99313 35884 ft 506 kts 78°
2026-05-05 16:42 56.84238 -159.86665 35875 ft 506 kts 78°
2026-05-05 16:43 56.85457 -159.74018 35867 ft 505 kts 78°
2026-05-05 16:43 56.86665 -159.61370 35865 ft 505 kts 79°
2026-05-05 16:44 56.87859 -159.48716 35865 ft 505 kts 79°
2026-05-05 16:44 56.89040 -159.36063 35853 ft 505 kts 79°
2026-05-05 16:45 56.90208 -159.23393 35853 ft 505 kts 79°
2026-05-05 16:45 56.91363 -159.10722 35851 ft 505 kts 79°
2026-05-05 16:46 56.92496 -158.98146 35842 ft 505 kts 80°
2026-05-05 16:46 56.93625 -158.85468 35843 ft 503 kts 80°
2026-05-05 16:47 56.94737 -158.72824 35851 ft 503 kts 80°
2026-05-05 16:47 56.95843 -158.60189 35859 ft 503 kts 79°
2026-05-05 16:48 56.97043 -158.47550 35861 ft 503 kts 79°
2026-05-05 16:48 56.98263 -158.34915 35834 ft 503 kts 79°
2026-05-05 16:49 56.99456 -158.22275 35823 ft 503 kts 79°
2026-05-05 16:49 57.00617 -158.09707 35818 ft 503 kts 80°
2026-05-05 16:50 57.01770 -157.97040 35807 ft 503 kts 80°
2026-05-05 16:50 57.02911 -157.84369 35807 ft 503 kts 80°
2026-05-05 16:51 57.04040 -157.71684 35809 ft 503 kts 80°
2026-05-05 16:51 57.05155 -157.59002 35789 ft 503 kts 80°
2026-05-05 16:52 57.06259 -157.46296 35782 ft 504 kts 81°
2026-05-05 16:52 57.07351 -157.33574 35784 ft 504 kts 81°
2026-05-05 16:53 57.08430 -157.20847 35770 ft 504 kts 81°
2026-05-05 16:53 57.09496 -157.08108 35771 ft 504 kts 81°
2026-05-05 16:54 57.10547 -156.95385 35771 ft 504 kts 81°
2026-05-05 16:54 57.11589 -156.82619 35758 ft 505 kts 81°
2026-05-05 16:55 57.12619 -156.69824 35757 ft 505 kts 81°
2026-05-05 16:55 57.13629 -156.57118 35751 ft 505 kts 81°
2026-05-05 16:56 57.14633 -156.44312 35745 ft 505 kts 81°
2026-05-05 16:56 57.15623 -156.31510 35743 ft 505 kts 82°
2026-05-05 16:57 57.16599 -156.18711 35743 ft 505 kts 82°
2026-05-05 16:57 57.17563 -156.05891 35747 ft 505 kts 82°
2026-05-05 16:58 57.18515 -155.93060 35749 ft 505 kts 82°
2026-05-05 16:58 57.19454 -155.80219 35752 ft 505 kts 82°
2026-05-05 16:59 57.20379 -155.67380 35752 ft 505 kts 82°
2026-05-05 16:59 57.21291 -155.54524 35751 ft 505 kts 82°
2026-05-05 17:00 57.22184 -155.41763 35750 ft 505 kts 83°
2026-05-05 17:00 57.23070 -155.28904 35749 ft 505 kts 83°
2026-05-05 17:01 57.23942 -155.16041 35744 ft 505 kts 83°
2026-05-05 17:01 57.24802 -155.03166 35747 ft 505 kts 83°
2026-05-05 17:02 57.25648 -154.90286 35746 ft 505 kts 83°
2026-05-05 17:02 57.26481 -154.77412 35746 ft 505 kts 83°
2026-05-05 17:03 57.27164 -154.66695 35748 ft 505 kts 83°
2026-05-05 17:03 57.27972 -154.53822 35747 ft 505 kts 83°
2026-05-05 17:04 57.28767 -154.40938 35744 ft 504 kts 83°
2026-05-05 17:04 57.29548 -154.28052 35738 ft 504 kts 84°
2026-05-05 17:05 57.30315 -154.15181 35740 ft 504 kts 84°
2026-05-05 17:05 57.31071 -154.02287 35735 ft 504 kts 84°
2026-05-05 17:06 57.31808 -153.89472 35737 ft 504 kts 84°
2026-05-05 17:06 57.32536 -153.76557 35732 ft 504 kts 84°
2026-05-05 17:07 57.33252 -153.63651 35732 ft 504 kts 85°
2026-05-05 17:07 57.33953 -153.50741 35727 ft 504 kts 85°
2026-05-05 17:08 57.34643 -153.37803 35724 ft 504 kts 85°
2026-05-05 17:08 57.35320 -153.24868 35710 ft 505 kts 85°
2026-05-05 17:09 57.35983 -153.11925 35712 ft 505 kts 86°
2026-05-05 17:09 57.36633 -152.98975 35685 ft 505 kts 86°
2026-05-05 17:10 57.37271 -152.86014 35685 ft 505 kts 86°
2026-05-05 17:10 57.37895 -152.73049 35681 ft 505 kts 86°
2026-05-05 17:11 57.38506 -152.60067 35677 ft 506 kts 86°
2026-05-05 17:11 57.39101 -152.47145 35664 ft 507 kts 86°
2026-05-05 17:12 57.39687 -152.34102 35673 ft 507 kts 86°
2026-05-05 17:12 57.40259 -152.21088 35666 ft 506 kts 86°
2026-05-05 17:13 57.40817 -152.08081 35688 ft 506 kts 87°
2026-05-05 17:13 57.41362 -151.95064 35685 ft 506 kts 87°
2026-05-05 17:14 57.41891 -151.82092 35688 ft 507 kts 87°
2026-05-05 17:14 57.42410 -151.69047 35686 ft 507 kts 87°
2026-05-05 17:15 57.42915 -151.55998 35689 ft 507 kts 88°
2026-05-05 17:15 57.43408 -151.42934 35688 ft 507 kts 88°
2026-05-05 17:16 57.43885 -151.29903 35676 ft 507 kts 88°
2026-05-05 17:16 57.44351 -151.16809 35683 ft 508 kts 88°
2026-05-05 17:17 57.44803 -151.03723 35683 ft 508 kts 88°
2026-05-05 17:17 57.45242 -150.90624 35687 ft 508 kts 88°
2026-05-05 17:18 57.45664 -150.77616 35677 ft 508 kts 89°
2026-05-05 17:18 57.46079 -150.64440 35680 ft 508 kts 89°
2026-05-05 17:19 57.46638 -150.51442 35686 ft 510 kts 83°
2026-05-05 17:19 57.47760 -150.38421 35674 ft 511 kts 82°
2026-05-05 17:20 57.48967 -150.25389 35681 ft 511 kts 82°
2026-05-05 17:20 57.50166 -150.12376 35677 ft 510 kts 82°
2026-05-05 17:21 57.51341 -149.99363 35674 ft 510 kts 82°
2026-05-05 17:22 57.53067 -149.79844 35664 ft 509 kts 83°
2026-05-05 17:22 57.54200 -149.66815 35674 ft 511 kts 83°
2026-05-05 17:23 57.55323 -149.53747 35670 ft 511 kts 83°
2026-05-05 17:23 57.56432 -149.40689 35681 ft 511 kts 83°
2026-05-05 17:24 57.57520 -149.27709 35676 ft 510 kts 83°
2026-05-05 17:24 57.58602 -149.14638 35682 ft 509 kts 84°
2026-05-05 17:25 57.59668 -149.01586 35654 ft 509 kts 84°
2026-05-05 17:25 57.60720 -148.88510 35683 ft 511 kts 84°
2026-05-05 17:26 57.61763 -148.75395 35694 ft 511 kts 84°
2026-05-05 17:26 57.62791 -148.62282 35688 ft 511 kts 85°
2026-05-05 17:27 57.63806 -148.49160 35701 ft 511 kts 85°
2026-05-05 17:27 57.64808 -148.36028 35703 ft 510 kts 85°
2026-05-05 17:28 57.65795 -148.22897 35705 ft 510 kts 85°
2026-05-05 17:28 57.66770 -148.09754 35716 ft 512 kts 86°
2026-05-05 17:29 57.67726 -147.96650 35717 ft 512 kts 86°
2026-05-05 17:29 57.68676 -147.83449 35713 ft 512 kts 86°
2026-05-05 17:30 57.69612 -147.70237 35714 ft 512 kts 86°
2026-05-05 17:30 57.70535 -147.57020 35727 ft 512 kts 86°
2026-05-05 17:31 57.71443 -147.43806 35727 ft 512 kts 86°
2026-05-05 17:31 57.72336 -147.30611 35727 ft 512 kts 87°
2026-05-05 17:32 57.73215 -147.17394 35737 ft 511 kts 87°
2026-05-05 17:32 57.74080 -147.04187 35738 ft 511 kts 87°
2026-05-05 17:33 57.74925 -146.91064 35752 ft 511 kts 87°
2026-05-05 17:33 57.75763 -146.77850 35752 ft 511 kts 87°
2026-05-05 17:34 57.76586 -146.64628 35719 ft 511 kts 87°
2026-05-05 17:34 57.77397 -146.51369 35760 ft 512 kts 88°
2026-05-05 17:35 57.78195 -146.38093 35765 ft 513 kts 88°
2026-05-05 17:35 57.78981 -146.24807 35776 ft 513 kts 88°
2026-05-05 17:36 57.79753 -146.11502 35777 ft 513 kts 88°
2026-05-05 17:36 57.80505 -145.98292 35785 ft 513 kts 88°
2026-05-05 17:37 57.81249 -145.84970 35756 ft 513 kts 88°
2026-05-05 17:37 57.81978 -145.71673 35785 ft 513 kts 89°
2026-05-05 17:38 57.82693 -145.58378 35799 ft 512 kts 89°
2026-05-05 17:38 57.83394 -145.45067 35799 ft 512 kts 89°
2026-05-05 17:39 57.84079 -145.31780 35809 ft 512 kts 89°
2026-05-05 17:39 57.84750 -145.18491 35810 ft 512 kts 89°
2026-05-05 17:40 57.85410 -145.05166 35810 ft 511 kts 89°
2026-05-05 17:40 57.86053 -144.91877 35818 ft 511 kts 90°
2026-05-05 17:41 57.86682 -144.78605 35829 ft 510 kts 90°
2026-05-05 17:41 57.87296 -144.65331 35828 ft 510 kts 90°
2026-05-05 17:42 57.87892 -144.52146 35828 ft 510 kts 90°
2026-05-05 17:42 57.88478 -144.38865 35841 ft 509 kts 90°
2026-05-05 17:43 57.89050 -144.25601 35846 ft 509 kts 91°
2026-05-05 17:43 57.89609 -144.12312 35843 ft 509 kts 91°
2026-05-05 17:44 57.90152 -143.99044 35853 ft 509 kts 91°
2026-05-05 17:44 57.90683 -143.85755 35849 ft 509 kts 91°
2026-05-05 17:45 57.91200 -143.72467 35862 ft 509 kts 91°
2026-05-05 17:45 57.91702 -143.59185 35861 ft 509 kts 91°
2026-05-05 17:46 57.92188 -143.45985 35867 ft 509 kts 92°
2026-05-05 17:46 57.92663 -143.32709 35872 ft 509 kts 92°
2026-05-05 17:47 57.93124 -143.19404 35873 ft 509 kts 92°
2026-05-05 17:47 57.93572 -143.06106 35884 ft 509 kts 92°
2026-05-05 17:48 57.94006 -142.92811 35879 ft 509 kts 92°
2026-05-05 17:48 57.94425 -142.79519 35884 ft 509 kts 92°
2026-05-05 17:49 57.94830 -142.66223 35895 ft 508 kts 93°
2026-05-05 17:49 57.95221 -142.52936 35892 ft 509 kts 93°
2026-05-05 17:50 57.95598 -142.39631 35905 ft 509 kts 93°
2026-05-05 17:50 57.95962 -142.26315 35906 ft 509 kts 94°
2026-05-05 17:51 57.96312 -142.13027 35914 ft 508 kts 94°
2026-05-05 17:51 57.96648 -141.99719 35917 ft 508 kts 94°
2026-05-05 17:52 57.96916 -141.88652 35925 ft 508 kts 94°
2026-05-05 17:52 57.97276 -141.73180 35917 ft 509 kts 94°
2026-05-05 17:53 57.97523 -141.62024 35927 ft 508 kts 95°
2026-05-05 17:53 57.97805 -141.48716 35934 ft 508 kts 95°
2026-05-05 17:54 57.98074 -141.35399 35933 ft 508 kts 95°
2026-05-05 17:54 57.98328 -141.22096 35935 ft 508 kts 95°
2026-05-05 17:55 57.98567 -141.08892 35937 ft 508 kts 95°
2026-05-05 17:55 57.98793 -140.95594 35938 ft 508 kts 96°
2026-05-05 17:56 57.99005 -140.82263 35955 ft 509 kts 96°
2026-05-05 17:56 57.99205 -140.68941 35955 ft 508 kts 96°
2026-05-05 17:57 57.99390 -140.55633 35956 ft 508 kts 96°
2026-05-05 17:57 57.99561 -140.42310 35966 ft 508 kts 96°
2026-05-05 17:58 57.99718 -140.29010 35966 ft 508 kts 96°
2026-05-05 17:58 57.99862 -140.15700 35926 ft 507 kts 96°
2026-05-05 17:59 57.99991 -140.02386 35975 ft 508 kts 96°
2026-05-05 17:59 58.00000 -139.89101 35973 ft 505 kts 99°
2026-05-05 18:00 57.99776 -139.75890 35976 ft 504 kts 100°
2026-05-05 18:00 57.99533 -139.62689 35980 ft 504 kts 99°
2026-05-05 18:01 57.99315 -139.49461 35988 ft 505 kts 99°
2026-05-05 18:01 57.99101 -139.36245 35990 ft 504 kts 99°
2026-05-05 18:02 57.98877 -139.23042 35993 ft 504 kts 99°
2026-05-05 18:02 57.98636 -139.09825 35993 ft 505 kts 100°
2026-05-05 18:03 57.98382 -138.96684 36001 ft 505 kts 100°
2026-05-05 18:03 57.98113 -138.83449 36005 ft 505 kts 100°
2026-05-05 18:04 57.97830 -138.70229 36005 ft 505 kts 100°
2026-05-05 18:04 57.97534 -138.57019 36007 ft 505 kts 101°
2026-05-05 18:05 57.97225 -138.43820 36016 ft 504 kts 101°
2026-05-05 18:05 57.96902 -138.30637 36021 ft 504 kts 101°
2026-05-05 18:06 57.96566 -138.17475 36014 ft 503 kts 101°
2026-05-05 18:06 57.96215 -138.04290 36014 ft 504 kts 101°
2026-05-05 18:07 57.95850 -137.91106 36021 ft 504 kts 101°
2026-05-05 18:07 57.95473 -137.77931 36021 ft 504 kts 102°
2026-05-05 18:08 57.95081 -137.64751 36033 ft 504 kts 102°
2026-05-05 18:08 57.94676 -137.51582 36032 ft 504 kts 102°
2026-05-05 18:09 57.94260 -137.38490 36036 ft 504 kts 102°
2026-05-05 18:09 57.93828 -137.25322 36037 ft 503 kts 102°
2026-05-05 18:10 57.93383 -137.12189 36037 ft 503 kts 102°
2026-05-05 18:10 57.92924 -136.99046 36042 ft 504 kts 102°
2026-05-05 18:11 57.92450 -136.85891 36043 ft 504 kts 103°
2026-05-05 18:11 57.91964 -136.72743 36045 ft 504 kts 103°
2026-05-05 18:12 57.91464 -136.59594 36042 ft 503 kts 103°
2026-05-05 18:12 57.90955 -136.46559 36042 ft 503 kts 103°
2026-05-05 18:13 57.90429 -136.33452 36036 ft 503 kts 103°
2026-05-05 18:13 57.89884 -136.20320 36033 ft 505 kts 104°
2026-05-05 18:14 57.89326 -136.07116 36039 ft 507 kts 103°
2026-05-05 18:14 57.88759 -135.93905 36035 ft 507 kts 103°
2026-05-05 18:15 57.88175 -135.80715 36016 ft 506 kts 104°
2026-05-05 18:15 57.87578 -135.67513 36022 ft 506 kts 104°
2026-05-05 18:16 57.86971 -135.54431 36017 ft 506 kts 104°
2026-05-05 18:16 57.86342 -135.41239 36008 ft 507 kts 104°
2026-05-05 18:17 57.85701 -135.28048 36006 ft 507 kts 104°
2026-05-05 18:17 57.85044 -135.14816 35999 ft 510 kts 104°
2026-05-05 18:18 57.84372 -135.01550 35995 ft 510 kts 104°
2026-05-05 18:18 57.83689 -134.88305 35990 ft 509 kts 104°
2026-05-05 18:19 57.82994 -134.75084 35929 ft 509 kts 104°
2026-05-05 18:19 57.82281 -134.61860 35986 ft 510 kts 104°
2026-05-05 18:20 57.81554 -134.48609 35989 ft 510 kts 104°
2026-05-05 18:20 57.80818 -134.35473 35993 ft 509 kts 105°
2026-05-05 18:21 57.80063 -134.22263 36001 ft 510 kts 104°
2026-05-05 18:21 57.79296 -134.09018 35999 ft 511 kts 104°
2026-05-05 18:22 57.78514 -133.95773 35962 ft 510 kts 104°
2026-05-05 18:22 57.77717 -133.82542 36001 ft 511 kts 104°
2026-05-05 18:23 57.76907 -133.69315 36000 ft 511 kts 104°
2026-05-05 18:23 57.76083 -133.56089 36007 ft 511 kts 104°
2026-05-05 18:24 57.75251 -133.42964 36017 ft 511 kts 105°
2026-05-05 18:24 57.74400 -133.29772 36001 ft 510 kts 104°
2026-05-05 18:25 57.73536 -133.16561 36000 ft 511 kts 104°
2026-05-05 18:25 57.72655 -133.03360 36001 ft 511 kts 104°
2026-05-05 18:26 57.71760 -132.90160 36010 ft 512 kts 104°
2026-05-05 18:26 57.70853 -132.76961 35990 ft 512 kts 104°
2026-05-05 18:27 57.69938 -132.63833 35975 ft 511 kts 104°
2026-05-05 18:27 57.69000 -132.50605 35974 ft 511 kts 105°
2026-05-05 18:28 57.67573 -132.30879 35945 ft 511 kts 103°
2026-05-05 18:28 57.66611 -132.17733 35944 ft 511 kts 104°
2026-05-05 18:29 57.65627 -132.04597 35965 ft 511 kts 104°
2026-05-05 18:29 57.64634 -131.91475 35956 ft 510 kts 104°
2026-05-05 18:30 57.63626 -131.78376 35938 ft 510 kts 104°
2026-05-05 18:30 57.62604 -131.65273 35940 ft 510 kts 104°
2026-05-05 18:31 57.61580 -131.52279 35936 ft 510 kts 104°
2026-05-05 18:31 57.60534 -131.39217 35941 ft 509 kts 104°
2026-05-05 18:32 57.59468 -131.26120 35935 ft 511 kts 104°
2026-05-05 18:32 57.58391 -131.13017 35942 ft 511 kts 104°
2026-05-05 18:33 57.57303 -130.99945 35942 ft 511 kts 104°
2026-05-05 18:33 57.56201 -130.86872 35942 ft 511 kts 104°
2026-05-05 18:34 57.55084 -130.73787 35944 ft 512 kts 104°
2026-05-05 18:34 57.53951 -130.60690 35959 ft 512 kts 104°
2026-05-05 18:35 57.52806 -130.47611 35958 ft 513 kts 104°
2026-05-05 18:35 57.51642 -130.34503 35957 ft 514 kts 104°
2026-05-05 18:36 57.50473 -130.21492 35961 ft 514 kts 104°
2026-05-05 18:36 57.49280 -130.08391 35953 ft 514 kts 104°
2026-05-05 18:37 57.48075 -129.95312 35965 ft 514 kts 104°
2026-05-05 18:37 57.46859 -129.82218 35962 ft 514 kts 104°
2026-05-05 18:38 57.45632 -129.69142 35963 ft 514 kts 104°
2026-05-05 18:38 57.44385 -129.56069 35963 ft 513 kts 105°
2026-05-05 18:39 57.43120 -129.43022 35931 ft 515 kts 104°
2026-05-05 18:39 57.41841 -129.29942 35958 ft 515 kts 104°
2026-05-05 18:40 57.40557 -129.16865 35968 ft 515 kts 104°
2026-05-05 18:40 57.39256 -129.03809 35957 ft 515 kts 104°
2026-05-05 18:41 57.38163 -128.92969 35963 ft 515 kts 104°
2026-05-05 18:41 57.36838 -128.79935 35966 ft 514 kts 104°
2026-05-05 18:42 57.35501 -128.66919 35940 ft 514 kts 104°
2026-05-05 18:42 57.34149 -128.53924 35948 ft 514 kts 104°
2026-05-05 18:43 57.32793 -128.41018 35945 ft 514 kts 104°
2026-05-05 18:43 57.31416 -128.28034 35950 ft 514 kts 104°
2026-05-05 18:44 57.30025 -128.15064 35948 ft 514 kts 104°
2026-05-05 18:44 57.28619 -128.02090 35951 ft 514 kts 104°
2026-05-05 18:45 57.27200 -127.89144 35942 ft 514 kts 104°
2026-05-05 18:45 57.25769 -127.76209 35938 ft 513 kts 104°
2026-05-05 18:46 57.24327 -127.63294 35940 ft 513 kts 104°
2026-05-05 18:46 57.22875 -127.50409 35952 ft 512 kts 104°
2026-05-05 18:47 57.21408 -127.37539 35942 ft 512 kts 104°
2026-05-05 18:47 57.19927 -127.24676 35957 ft 512 kts 104°
2026-05-05 18:48 57.18442 -127.11913 35947 ft 512 kts 104°
2026-05-05 18:48 57.16938 -126.99086 35957 ft 512 kts 104°
2026-05-05 18:49 57.15418 -126.86239 35955 ft 512 kts 104°
2026-05-05 18:49 57.13890 -126.73438 35953 ft 511 kts 104°
2026-05-05 18:50 57.12357 -126.60653 35956 ft 512 kts 104°
2026-05-05 18:50 57.10796 -126.47859 35953 ft 512 kts 104°
2026-05-05 18:51 57.09226 -126.35096 35967 ft 512 kts 104°
2026-05-05 18:51 57.07646 -126.22351 35967 ft 511 kts 104°
2026-05-05 18:52 57.06048 -126.09600 35967 ft 512 kts 104°
2026-05-05 18:52 57.04449 -125.96951 35965 ft 512 kts 104°
2026-05-05 18:53 57.02827 -125.84227 35984 ft 512 kts 104°
2026-05-05 18:53 57.01193 -125.71514 35964 ft 511 kts 104°
2026-05-05 18:54 56.99549 -125.58832 35970 ft 510 kts 104°
2026-05-05 18:54 56.97893 -125.46143 35969 ft 510 kts 104°
2026-05-05 18:55 56.96224 -125.33509 35969 ft 510 kts 104°
2026-05-05 18:55 56.94546 -125.20873 35975 ft 510 kts 104°
2026-05-05 18:56 56.92853 -125.08255 35974 ft 510 kts 104°
2026-05-05 18:56 56.91160 -124.95722 35978 ft 510 kts 104°
2026-05-05 18:57 56.89442 -124.83110 35989 ft 512 kts 104°
2026-05-05 18:57 56.87702 -124.70447 35985 ft 513 kts 104°
2026-05-05 18:58 56.85946 -124.57829 35990 ft 512 kts 104°
2026-05-05 18:58 56.84188 -124.45216 35994 ft 512 kts 104°
2026-05-05 18:59 56.82412 -124.32610 35998 ft 512 kts 104°
2026-05-05 18:59 56.80624 -124.20034 36006 ft 512 kts 104°
2026-05-05 19:00 56.78822 -124.07457 36010 ft 513 kts 104°
2026-05-05 19:00 56.77016 -123.94953 36001 ft 514 kts 104°
2026-05-05 19:01 56.75163 -123.82235 36018 ft 515 kts 104°
2026-05-05 19:01 56.73338 -123.69715 36015 ft 515 kts 104°
2026-05-05 19:02 56.71473 -123.57109 36019 ft 515 kts 104°
2026-05-05 19:02 56.69595 -123.44524 36023 ft 515 kts 104°
2026-05-05 19:03 56.67710 -123.31955 36030 ft 515 kts 104°
2026-05-05 19:03 56.65814 -123.19411 36030 ft 515 kts 104°
2026-05-05 19:04 56.63900 -123.06880 36032 ft 515 kts 103°
2026-05-05 19:04 56.61973 -122.94339 36043 ft 515 kts 104°
2026-05-05 19:05 56.60044 -122.81891 36042 ft 515 kts 103°
2026-05-05 19:05 56.58085 -122.69323 36063 ft 515 kts 103°
2026-05-05 19:06 56.56125 -122.56832 36063 ft 515 kts 103°
2026-05-05 19:06 56.54165 -122.44441 36093 ft 514 kts 104°
2026-05-05 19:07 56.52178 -122.31984 36092 ft 514 kts 104°
2026-05-05 19:07 56.50179 -122.19549 36106 ft 515 kts 103°
2026-05-05 19:08 56.48167 -122.07103 36118 ft 515 kts 103°
2026-05-05 19:08 56.46144 -121.94670 36118 ft 515 kts 103°
2026-05-05 19:09 56.44107 -121.82260 36124 ft 515 kts 103°
2026-05-05 19:09 56.42058 -121.69862 36136 ft 515 kts 103°
2026-05-05 19:10 56.39999 -121.57484 36133 ft 515 kts 103°
2026-05-05 19:10 56.37926 -121.45118 36136 ft 514 kts 103°
2026-05-05 19:11 56.35845 -121.32789 36144 ft 514 kts 103°
2026-05-05 19:11 56.33763 -121.20540 36143 ft 515 kts 103°
2026-05-05 19:12 56.31653 -121.08207 36146 ft 515 kts 103°
2026-05-05 19:12 56.29530 -120.95886 36151 ft 515 kts 103°
2026-05-05 19:13 56.26998 -120.83794 36148 ft 518 kts 110°
2026-05-05 19:13 56.24076 -120.71931 36108 ft 518 kts 110°
2026-05-05 19:14 56.21095 -120.60132 36107 ft 518 kts 111°
2026-05-05 19:14 56.18107 -120.48354 36149 ft 519 kts 110°
2026-05-05 19:15 56.15133 -120.36645 36133 ft 520 kts 110°
2026-05-05 19:15 56.12129 -120.24858 36151 ft 520 kts 110°
2026-05-05 19:16 56.09110 -120.13075 36153 ft 519 kts 110°
2026-05-05 19:16 56.06086 -120.01341 36152 ft 519 kts 110°
2026-05-05 19:17 56.03050 -119.89624 36164 ft 519 kts 110°
2026-05-05 19:17 55.99999 -119.77907 36167 ft 519 kts 110°
2026-05-05 19:18 55.96939 -119.66220 36178 ft 520 kts 110°
2026-05-05 19:18 55.93871 -119.54561 36167 ft 519 kts 110°
2026-05-05 19:19 55.90786 -119.42898 36181 ft 520 kts 110°
2026-05-05 19:19 55.87686 -119.31233 36180 ft 521 kts 110°
2026-05-05 19:20 55.84572 -119.19581 36183 ft 521 kts 110°
2026-05-05 19:20 55.81448 -119.07952 36191 ft 521 kts 110°
2026-05-05 19:21 55.78314 -118.96347 36187 ft 520 kts 110°
2026-05-05 19:21 55.75191 -118.84835 36186 ft 520 kts 110°
2026-05-05 19:22 55.72038 -118.73272 36197 ft 520 kts 110°
2026-05-05 19:22 55.68875 -118.61732 36200 ft 520 kts 110°
2026-05-05 19:23 55.65699 -118.50206 36207 ft 520 kts 110°
2026-05-05 19:23 55.62514 -118.38706 36199 ft 520 kts 110°
2026-05-05 19:24 55.59319 -118.27222 36202 ft 520 kts 110°
2026-05-05 19:24 55.56117 -118.15770 36197 ft 520 kts 110°
2026-05-05 19:25 55.52902 -118.04327 36205 ft 520 kts 110°
2026-05-05 19:25 55.49677 -117.92909 36206 ft 520 kts 111°
2026-05-05 19:26 55.46439 -117.81502 36206 ft 520 kts 111°
2026-05-05 19:26 55.43211 -117.70186 36201 ft 520 kts 111°
2026-05-05 19:27 55.39953 -117.58821 36209 ft 521 kts 110°
2026-05-05 19:27 55.36673 -117.47431 36205 ft 522 kts 111°
2026-05-05 19:28 55.33382 -117.36059 36205 ft 521 kts 110°
2026-05-05 19:28 55.30084 -117.24721 36208 ft 521 kts 110°
2026-05-05 19:29 55.26781 -117.13417 36209 ft 521 kts 111°
2026-05-05 19:29 55.23483 -117.02185 36209 ft 521 kts 111°
2026-05-05 19:30 55.20699 -116.92746 36209 ft 521 kts 111°
2026-05-05 19:30 55.17364 -116.81490 36220 ft 521 kts 110°
2026-05-05 19:31 55.13476 -116.68435 36212 ft 521 kts 110°
2026-05-05 19:31 55.10684 -116.59099 36211 ft 521 kts 110°
2026-05-05 19:32 55.07316 -116.47890 36216 ft 521 kts 110°
2026-05-05 19:32 55.03938 -116.36699 36216 ft 521 kts 110°
2026-05-05 19:33 55.00547 -116.25527 36217 ft 521 kts 110°
2026-05-05 19:33 54.97151 -116.14387 36225 ft 521 kts 110°
2026-05-05 19:34 54.93750 -116.03276 36224 ft 520 kts 110°
2026-05-05 19:35 54.88624 -115.86635 36225 ft 520 kts 110°
2026-05-05 19:35 54.85195 -115.75574 36235 ft 520 kts 110°
2026-05-05 19:36 54.81761 -115.64540 36227 ft 520 kts 110°
2026-05-05 19:36 54.78315 -115.53513 36230 ft 520 kts 110°
2026-05-05 19:37 54.74858 -115.42504 36234 ft 520 kts 110°
2026-05-05 19:37 54.71390 -115.31512 36238 ft 520 kts 110°
2026-05-05 19:38 54.67912 -115.20546 36235 ft 520 kts 110°
2026-05-05 19:38 54.64427 -115.09602 36237 ft 520 kts 110°
2026-05-05 19:39 54.60935 -114.98682 36260 ft 520 kts 110°
2026-05-05 19:39 54.57434 -114.87794 36254 ft 519 kts 110°
2026-05-05 19:40 54.53929 -114.76934 36281 ft 518 kts 110°
2026-05-05 19:40 54.50441 -114.66176 36273 ft 517 kts 110°
2026-05-05 19:41 54.46924 -114.55379 36273 ft 517 kts 110°
2026-05-05 19:41 54.43402 -114.44609 36282 ft 517 kts 110°
2026-05-05 19:42 54.39866 -114.33849 36282 ft 517 kts 110°
2026-05-05 19:42 54.36318 -114.23099 36294 ft 517 kts 110°
2026-05-05 19:43 54.32766 -114.12390 36285 ft 516 kts 110°
2026-05-05 19:43 54.29220 -114.01745 36300 ft 514 kts 110°
2026-05-05 19:44 54.25585 -113.91181 36294 ft 517 kts 113°
2026-05-05 19:44 54.21671 -113.80841 36296 ft 518 kts 114°
2026-05-05 19:45 54.17750 -113.70615 36295 ft 517 kts 114°
2026-05-05 19:45 54.13836 -113.60313 36292 ft 516 kts 113°
2026-05-05 19:46 54.09942 -113.50019 36290 ft 516 kts 113°
2026-05-05 19:46 54.06041 -113.39730 36289 ft 516 kts 113°
2026-05-05 19:47 54.02134 -113.29477 36308 ft 516 kts 113°
2026-05-05 19:47 53.98221 -113.19257 36315 ft 515 kts 114°
2026-05-05 19:48 53.94304 -113.09071 36295 ft 515 kts 114°
2026-05-05 19:48 53.90405 -112.98967 36295 ft 515 kts 114°
2026-05-05 19:49 53.86471 -112.88814 36292 ft 515 kts 114°
2026-05-05 19:49 53.82528 -112.78679 36293 ft 515 kts 114°
2026-05-05 19:50 53.78579 -112.68570 36292 ft 515 kts 114°
2026-05-05 19:50 53.74618 -112.58472 36293 ft 515 kts 114°
2026-05-05 19:51 53.70650 -112.48397 36291 ft 515 kts 114°
2026-05-05 19:51 53.66702 -112.38410 36320 ft 515 kts 114°
2026-05-05 19:52 53.62722 -112.28386 36296 ft 514 kts 115°
2026-05-05 19:52 53.58737 -112.18391 36298 ft 513 kts 115°
2026-05-05 19:53 53.54752 -112.08434 36297 ft 513 kts 115°
2026-05-05 19:53 53.50758 -111.98489 36298 ft 513 kts 115°
2026-05-05 19:54 53.46751 -111.88554 36297 ft 513 kts 115°
2026-05-05 19:54 53.42741 -111.78651 36295 ft 513 kts 115°
2026-05-05 19:55 53.38725 -111.68772 36292 ft 513 kts 115°
2026-05-05 19:55 53.34700 -111.58910 36290 ft 513 kts 115°
2026-05-05 19:56 53.30667 -111.49067 36330 ft 511 kts 116°
2026-05-05 19:56 53.26646 -111.39297 36294 ft 510 kts 116°
2026-05-05 19:57 53.22621 -111.29548 36291 ft 510 kts 116°
2026-05-05 19:57 53.18588 -111.19814 36287 ft 509 kts 116°
2026-05-05 19:58 53.14551 -111.10111 36285 ft 510 kts 116°
2026-05-05 19:58 53.10533 -111.00490 36283 ft 509 kts 116°
2026-05-05 19:59 53.06477 -110.90818 36283 ft 509 kts 116°
2026-05-05 19:59 53.02425 -110.81166 36279 ft 508 kts 115°
2026-05-05 20:00 52.98783 -110.71218 36288 ft 501 kts 110°
2026-05-05 20:00 52.95361 -110.61163 36287 ft 500 kts 110°
2026-05-05 20:01 52.91908 -110.51241 36275 ft 499 kts 111°
2026-05-05 20:01 52.88374 -110.41331 36273 ft 499 kts 112°
2026-05-05 20:02 52.84816 -110.31463 36270 ft 500 kts 112°
2026-05-05 20:02 52.81248 -110.21607 36270 ft 500 kts 112°
2026-05-05 20:03 52.77672 -110.11758 36272 ft 500 kts 112°
2026-05-05 20:03 52.74089 -110.01919 36255 ft 499 kts 112°
2026-05-05 20:04 52.70502 -109.92114 36262 ft 499 kts 112°
2026-05-05 20:04 52.66908 -109.82327 36260 ft 499 kts 113°
2026-05-05 20:05 52.63303 -109.72547 36258 ft 499 kts 113°
2026-05-05 20:05 52.59692 -109.62785 36266 ft 499 kts 113°
2026-05-05 20:06 52.56080 -109.53058 36251 ft 498 kts 114°
2026-05-05 20:06 52.52478 -109.43401 36250 ft 498 kts 114°
2026-05-05 20:07 52.48845 -109.33700 36251 ft 498 kts 114°
2026-05-05 20:07 52.45211 -109.24028 36288 ft 498 kts 114°
2026-05-05 20:08 52.41569 -109.14377 36251 ft 496 kts 115°
2026-05-05 20:08 52.37945 -109.04804 36247 ft 494 kts 115°
2026-05-05 20:09 52.34323 -108.95269 36244 ft 494 kts 115°
2026-05-05 20:09 52.30686 -108.85733 36241 ft 494 kts 115°
2026-05-05 20:10 52.27046 -108.76226 36240 ft 494 kts 115°
2026-05-05 20:10 52.23397 -108.66730 36240 ft 493 kts 116°
2026-05-05 20:11 52.19746 -108.57269 36235 ft 493 kts 116°
2026-05-05 20:11 52.16113 -108.47890 36228 ft 491 kts 116°
2026-05-05 20:12 52.12442 -108.38450 36226 ft 490 kts 116°
2026-05-05 20:12 52.08818 -108.29158 36220 ft 489 kts 117°
2026-05-05 20:13 52.05167 -108.19829 36220 ft 489 kts 117°
2026-05-05 20:13 52.01506 -108.10513 36209 ft 489 kts 117°
2026-05-05 20:14 51.97835 -108.01203 36209 ft 489 kts 117°
2026-05-05 20:14 51.94161 -107.91921 36203 ft 489 kts 117°
2026-05-05 20:15 51.90479 -107.82652 36223 ft 489 kts 117°
2026-05-05 20:15 51.86797 -107.73416 36206 ft 487 kts 118°
2026-05-05 20:16 51.83148 -107.64299 36206 ft 486 kts 118°
2026-05-05 20:16 51.79469 -107.55137 36202 ft 486 kts 118°
2026-05-05 20:17 51.75786 -107.45995 36194 ft 486 kts 118°
2026-05-05 20:17 51.72094 -107.36866 36195 ft 486 kts 118°
2026-05-05 20:18 51.68398 -107.27757 36196 ft 485 kts 118°
2026-05-05 20:18 51.64695 -107.18666 36194 ft 485 kts 118°
2026-05-05 20:19 51.60987 -107.09595 36204 ft 484 kts 118°
2026-05-05 20:19 51.57281 -107.00561 36200 ft 483 kts 118°
2026-05-05 20:20 51.54198 -106.93068 36183 ft 483 kts 118°
2026-05-05 20:20 51.50488 -106.84080 36189 ft 483 kts 119°
2026-05-05 20:21 51.46767 -106.75097 36186 ft 483 kts 119°
2026-05-05 20:21 51.43039 -106.66128 36182 ft 483 kts 119°
2026-05-05 20:22 51.39308 -106.57182 36182 ft 483 kts 119°
2026-05-05 20:22 51.35592 -106.48305 36185 ft 483 kts 119°
2026-05-05 20:23 51.31852 -106.39398 36174 ft 481 kts 120°
2026-05-05 20:23 51.28110 -106.30522 36173 ft 481 kts 120°
2026-05-05 20:24 51.24372 -106.21683 36171 ft 480 kts 120°
2026-05-05 20:24 51.20628 -106.12859 36165 ft 480 kts 120°
2026-05-05 20:25 51.16869 -106.04028 36172 ft 480 kts 120°
2026-05-05 20:25 51.13108 -105.95224 36164 ft 480 kts 120°
2026-05-05 20:26 51.09366 -105.86495 36157 ft 480 kts 120°
2026-05-05 20:26 51.05596 -105.77728 36171 ft 480 kts 120°
2026-05-05 20:27 51.01823 -105.68988 36158 ft 479 kts 120°
2026-05-05 20:27 50.98053 -105.60282 36157 ft 478 kts 121°
2026-05-05 20:28 50.94276 -105.51587 36156 ft 479 kts 121°
2026-05-05 20:28 50.90492 -105.42906 36157 ft 479 kts 121°
2026-05-05 20:29 50.86699 -105.34233 36157 ft 479 kts 121°
2026-05-05 20:29 50.82898 -105.25571 36157 ft 479 kts 121°
2026-05-05 20:30 50.79095 -105.16932 36158 ft 479 kts 121°
2026-05-05 20:30 50.75284 -105.08304 36151 ft 478 kts 121°
2026-05-05 20:31 50.71469 -104.99698 36155 ft 478 kts 121°
2026-05-05 20:31 50.67658 -104.91092 36158 ft 477 kts 120°
2026-05-05 20:32 50.64505 -104.81953 36150 ft 473 kts 112°
2026-05-05 20:32 50.61602 -104.72654 36110 ft 473 kts 112°
2026-05-05 20:33 50.58725 -104.63332 36095 ft 473 kts 112°
2026-05-05 20:33 50.55848 -104.54081 36116 ft 474 kts 112°
2026-05-05 20:34 50.52934 -104.44785 36092 ft 474 kts 112°
2026-05-05 20:34 50.50010 -104.35505 36105 ft 474 kts 112°
2026-05-05 20:35 50.47080 -104.26241 36107 ft 474 kts 113°
2026-05-05 20:35 50.44145 -104.16992 36114 ft 474 kts 113°
2026-05-05 20:36 50.41197 -104.07737 36120 ft 474 kts 113°
2026-05-05 20:36 50.38243 -103.98498 36119 ft 474 kts 113°
2026-05-05 20:37 50.35281 -103.89270 36109 ft 474 kts 113°
2026-05-05 20:37 50.32310 -103.80048 36107 ft 474 kts 113°
2026-05-05 20:38 50.29331 -103.70835 36107 ft 474 kts 114°
2026-05-05 20:38 50.26367 -103.61699 36108 ft 474 kts 114°
2026-05-05 20:39 50.23378 -103.52523 36102 ft 474 kts 114°
2026-05-05 20:39 50.20380 -103.43353 36103 ft 474 kts 114°
2026-05-05 20:40 50.17372 -103.34185 36096 ft 474 kts 114°
2026-05-05 20:40 50.14358 -103.25031 36097 ft 474 kts 114°
2026-05-05 20:41 50.11341 -103.15900 36093 ft 474 kts 114°
2026-05-05 20:41 50.08313 -103.06773 36092 ft 474 kts 114°
2026-05-05 20:42 50.05280 -102.97661 36092 ft 474 kts 114°
2026-05-05 20:42 50.02259 -102.88620 36091 ft 474 kts 114°
2026-05-05 20:43 49.99211 -102.79530 36093 ft 474 kts 115°
2026-05-05 20:43 49.96156 -102.70450 36094 ft 474 kts 115°
2026-05-05 20:44 49.93097 -102.61389 36092 ft 474 kts 115°
2026-05-05 20:44 49.90021 -102.52314 36089 ft 475 kts 115°
2026-05-05 20:45 49.85396 -102.38730 36088 ft 475 kts 115°
2026-05-05 20:45 49.82306 -102.29695 36102 ft 475 kts 115°
2026-05-05 20:46 49.79208 -102.20666 36088 ft 475 kts 115°
2026-05-05 20:46 49.76115 -102.11684 36088 ft 476 kts 116°
2026-05-05 20:47 49.72993 -102.02652 36093 ft 476 kts 116°
2026-05-05 20:47 49.69864 -101.93633 36088 ft 476 kts 116°
2026-05-05 20:48 49.66725 -101.84615 36085 ft 476 kts 116°
2026-05-05 20:48 49.63584 -101.75621 36103 ft 476 kts 116°
2026-05-05 20:49 49.60458 -101.66701 36079 ft 476 kts 116°
2026-05-05 20:49 49.57303 -101.57725 36089 ft 477 kts 117°
2026-05-05 20:50 49.54131 -101.48741 36088 ft 477 kts 117°
2026-05-05 20:50 49.50956 -101.39781 36089 ft 477 kts 117°
2026-05-05 20:51 49.47768 -101.30815 36088 ft 477 kts 117°
2026-05-05 20:51 49.44577 -101.21868 36104 ft 477 kts 117°
2026-05-05 20:52 49.41379 -101.12933 36085 ft 477 kts 117°
2026-05-05 20:52 49.38176 -101.04012 36086 ft 477 kts 117°
2026-05-05 20:53 49.34965 -100.95100 36086 ft 477 kts 118°
2026-05-05 20:53 49.31763 -100.86246 36087 ft 477 kts 118°
2026-05-05 20:54 49.28543 -100.77370 36086 ft 477 kts 118°
2026-05-05 20:54 49.25312 -100.68496 36097 ft 477 kts 118°
2026-05-05 20:55 49.22074 -100.59630 36084 ft 478 kts 118°
2026-05-05 20:55 49.18824 -100.50766 36083 ft 478 kts 118°
2026-05-05 20:56 49.15565 -100.41906 36083 ft 478 kts 118°
2026-05-05 20:56 49.12300 -100.33062 36215 ft 481 kts 118°
2026-05-05 20:57 49.10644 -100.28583 36342 ft 488 kts 118°
2026-05-05 20:57 49.08964 -100.24050 36484 ft 494 kts 118°
2026-05-05 20:57 49.07258 -100.19454 36613 ft 501 kts 118°
2026-05-05 20:57 49.05530 -100.14808 36777 ft 506 kts 119°
2026-05-05 20:58 49.03788 -100.10133 37008 ft 508 kts 119°
2026-05-05 20:58 49.02059 -100.05503 37073 ft 497 kts 119°
2026-05-05 20:58 48.98678 -99.96435 37077 ft 489 kts 118°
2026-05-05 20:59 48.95454 -99.87316 37071 ft 489 kts 117°
2026-05-05 20:59 48.92287 -99.78231 37068 ft 489 kts 117°
2026-05-05 21:00 48.89070 -99.69109 37066 ft 489 kts 118°
2026-05-05 21:00 48.85832 -99.60017 37071 ft 490 kts 118°
2026-05-05 21:01 48.82578 -99.50929 37068 ft 490 kts 118°
2026-05-05 21:01 48.79315 -99.41848 37070 ft 490 kts 118°
2026-05-05 21:02 48.76049 -99.32784 37068 ft 490 kts 118°
2026-05-05 21:02 48.72779 -99.23740 37065 ft 490 kts 118°
2026-05-05 21:03 48.69497 -99.14691 37073 ft 490 kts 118°
2026-05-05 21:03 48.66202 -99.05643 37071 ft 491 kts 118°
2026-05-05 21:04 48.62900 -98.96606 37063 ft 491 kts 119°
2026-05-05 21:04 48.59611 -98.87636 37063 ft 491 kts 119°
2026-05-05 21:05 48.56296 -98.78623 37057 ft 491 kts 119°
2026-05-05 21:05 48.52973 -98.69620 37057 ft 491 kts 119°
2026-05-05 21:06 48.49645 -98.60634 37054 ft 491 kts 119°
2026-05-05 21:06 48.46311 -98.51665 37051 ft 491 kts 119°
2026-05-05 21:07 48.42967 -98.42698 37047 ft 491 kts 119°
2026-05-05 21:07 48.39619 -98.33752 37048 ft 490 kts 119°
2026-05-05 21:08 48.36831 -98.26323 37043 ft 490 kts 119°
2026-05-05 21:08 48.33467 -98.17388 37035 ft 491 kts 120°
2026-05-05 21:09 48.30094 -98.08460 37035 ft 492 kts 120°
2026-05-05 21:09 48.26711 -97.99536 37035 ft 492 kts 120°
2026-05-05 21:10 48.23322 -97.90626 37035 ft 492 kts 120°
2026-05-05 21:10 48.19926 -97.81728 37033 ft 492 kts 120°
2026-05-05 21:11 48.16522 -97.72836 37026 ft 492 kts 120°
2026-05-05 21:11 48.13130 -97.64004 37025 ft 493 kts 120°
2026-05-05 21:12 48.09700 -97.55108 37021 ft 494 kts 121°
2026-05-05 21:12 48.06261 -97.46215 36990 ft 494 kts 121°
2026-05-05 21:13 48.02814 -97.37334 36991 ft 494 kts 121°
2026-05-05 21:13 47.99364 -97.28472 36984 ft 493 kts 121°
2026-05-05 21:14 47.95901 -97.19603 37014 ft 495 kts 121°
2026-05-05 21:14 47.92658 -97.10547 37008 ft 496 kts 116°
2026-05-05 21:15 47.89802 -97.01183 37013 ft 496 kts 115°
2026-05-05 21:15 47.86931 -96.91833 37011 ft 496 kts 116°
2026-05-05 21:16 47.83987 -96.82555 36979 ft 496 kts 116°
2026-05-05 21:16 47.81001 -96.73305 37017 ft 496 kts 117°
2026-05-05 21:17 47.77997 -96.64049 37021 ft 498 kts 117°
2026-05-05 21:17 47.74997 -96.54830 37026 ft 498 kts 117°
2026-05-05 21:18 47.71975 -96.45566 37027 ft 498 kts 117°
2026-05-05 21:18 47.68942 -96.36303 37024 ft 498 kts 117°
2026-05-05 21:19 47.65905 -96.27060 37025 ft 498 kts 117°
2026-05-05 21:19 47.62858 -96.17819 36994 ft 498 kts 117°
2026-05-05 21:20 47.59801 -96.08581 37011 ft 501 kts 117°
2026-05-05 21:20 47.56721 -95.99310 37006 ft 501 kts 117°
2026-05-05 21:21 47.53637 -95.90059 36999 ft 501 kts 118°
2026-05-05 21:21 47.50546 -95.80817 36986 ft 501 kts 118°
2026-05-05 21:22 47.47449 -95.71595 36991 ft 501 kts 118°
2026-05-05 21:22 47.44347 -95.62388 37002 ft 501 kts 118°
2026-05-05 21:23 47.41247 -95.53221 37002 ft 503 kts 118°
2026-05-05 21:23 47.38113 -95.43986 36994 ft 503 kts 118°
2026-05-05 21:24 47.34974 -95.34768 36982 ft 502 kts 118°
2026-05-05 21:24 47.31832 -95.25574 36971 ft 502 kts 118°
2026-05-05 21:25 47.28684 -95.16396 36985 ft 502 kts 118°
2026-05-05 21:25 47.25527 -95.07223 36973 ft 503 kts 119°
2026-05-05 21:26 47.22354 -94.98037 36975 ft 504 kts 119°
2026-05-05 21:26 47.19169 -94.88845 36975 ft 504 kts 119°
2026-05-05 21:27 47.15976 -94.79665 36977 ft 504 kts 119°
2026-05-05 21:27 47.12774 -94.70490 36974 ft 504 kts 120°
2026-05-05 21:28 47.09591 -94.61402 36968 ft 504 kts 120°
2026-05-05 21:28 47.06374 -94.52250 36959 ft 505 kts 120°
2026-05-05 21:29 47.03143 -94.43089 36952 ft 506 kts 120°
2026-05-05 21:29 46.99902 -94.33931 36944 ft 506 kts 120°
2026-05-05 21:30 46.96651 -94.24775 36943 ft 506 kts 120°
2026-05-05 21:30 46.93393 -94.15634 36943 ft 506 kts 120°
2026-05-05 21:31 46.90131 -94.06513 36952 ft 506 kts 120°
2026-05-05 21:31 46.86858 -93.97388 36953 ft 507 kts 121°
2026-05-05 21:32 46.83571 -93.88262 36961 ft 507 kts 121°
2026-05-05 21:32 46.80277 -93.79145 36969 ft 507 kts 121°
2026-05-05 21:33 46.76976 -93.70040 36946 ft 507 kts 121°
2026-05-05 21:33 46.73670 -93.60952 36940 ft 507 kts 121°
2026-05-05 21:34 46.70379 -93.51934 36937 ft 507 kts 121°
2026-05-05 21:34 46.67061 -93.42877 36925 ft 507 kts 121°
2026-05-05 21:35 46.63718 -93.33778 36926 ft 507 kts 121°
2026-05-05 21:35 46.60410 -93.24807 36924 ft 507 kts 121°
2026-05-05 21:36 46.57070 -93.15779 36926 ft 507 kts 122°
2026-05-05 21:36 46.53724 -93.06765 36932 ft 507 kts 122°
2026-05-05 21:37 46.50368 -92.97753 36935 ft 508 kts 122°
2026-05-05 21:37 46.46997 -92.88733 36935 ft 508 kts 122°
2026-05-05 21:38 46.43620 -92.79727 36920 ft 508 kts 122°
2026-05-05 21:38 46.40234 -92.70725 36933 ft 508 kts 122°
2026-05-05 21:39 46.36846 -92.61749 36928 ft 508 kts 122°
2026-05-05 21:39 46.33446 -92.52772 36904 ft 508 kts 123°
2026-05-05 21:40 46.30034 -92.43793 36937 ft 510 kts 123°
2026-05-05 21:40 46.26609 -92.34808 36934 ft 510 kts 123°
2026-05-05 21:41 46.23174 -92.25828 36928 ft 511 kts 123°
2026-05-05 21:41 46.19730 -92.16851 36929 ft 511 kts 123°
2026-05-05 21:42 46.16281 -92.07892 36926 ft 511 kts 123°
2026-05-05 21:42 46.12822 -91.98936 36917 ft 511 kts 123°
2026-05-05 21:43 46.09374 -91.90041 36919 ft 512 kts 124°
2026-05-05 21:43 46.05892 -91.81086 36901 ft 512 kts 124°
2026-05-05 21:44 46.02403 -91.72141 36894 ft 512 kts 124°
2026-05-05 21:44 45.98908 -91.63209 36884 ft 512 kts 124°
2026-05-05 21:45 45.95407 -91.54289 36860 ft 512 kts 124°
2026-05-05 21:45 45.91893 -91.45371 36880 ft 514 kts 124°
2026-05-05 21:46 45.88365 -91.36442 36888 ft 514 kts 124°
2026-05-05 21:46 45.84830 -91.27525 36896 ft 514 kts 124°
2026-05-05 21:47 45.81292 -91.18629 36904 ft 514 kts 124°
2026-05-05 21:47 45.77747 -91.09743 36911 ft 514 kts 125°
2026-05-05 21:48 45.74191 -91.00860 36922 ft 515 kts 125°
2026-05-05 21:48 45.70635 -90.92010 36913 ft 516 kts 125°
2026-05-05 21:49 45.67049 -90.83108 36911 ft 516 kts 125°
2026-05-05 21:49 45.63460 -90.74226 36911 ft 516 kts 126°
2026-05-05 21:50 45.59866 -90.65359 36910 ft 516 kts 126°
2026-05-05 21:50 45.56263 -90.56503 36898 ft 516 kts 126°
2026-05-05 21:51 45.52641 -90.47630 36911 ft 518 kts 126°
2026-05-05 21:51 45.49007 -90.38751 36910 ft 518 kts 126°
2026-05-05 21:52 45.43544 -90.25457 36902 ft 519 kts 126°
2026-05-05 21:53 45.39915 -90.16660 36902 ft 519 kts 126°
2026-05-05 21:53 45.36229 -90.07755 36902 ft 520 kts 127°
2026-05-05 21:54 45.32567 -89.98940 36896 ft 521 kts 127°
2026-05-05 21:54 45.28871 -89.90064 36902 ft 522 kts 127°
2026-05-05 21:55 45.25170 -89.81205 36904 ft 521 kts 127°
2026-05-05 21:55 45.21459 -89.72352 36905 ft 521 kts 127°
2026-05-05 21:56 45.18372 -89.65007 36868 ft 521 kts 128°
2026-05-05 21:56 45.14645 -89.56170 36907 ft 523 kts 128°
2026-05-05 21:57 45.10905 -89.47327 36907 ft 524 kts 128°
2026-05-05 21:57 45.07156 -89.38486 36881 ft 523 kts 128°
2026-05-05 21:58 45.03402 -89.29666 36881 ft 523 kts 128°
2026-05-05 21:58 44.99641 -89.20855 36890 ft 523 kts 128°
2026-05-05 21:59 44.95894 -89.12107 36896 ft 525 kts 128°
2026-05-05 21:59 44.92101 -89.03279 36885 ft 526 kts 128°
2026-05-05 22:00 44.88307 -88.94474 36883 ft 525 kts 128°
2026-05-05 22:00 44.84500 -88.85665 36880 ft 525 kts 128°
2026-05-05 22:01 44.80693 -88.76883 36880 ft 525 kts 128°
2026-05-05 22:01 44.76881 -88.68119 36878 ft 525 kts 129°
2026-05-05 22:02 44.73055 -88.59349 36878 ft 525 kts 129°
2026-05-05 22:02 44.69231 -88.50609 36877 ft 525 kts 129°
2026-05-05 22:03 44.65424 -88.41936 36875 ft 525 kts 129°
2026-05-05 22:03 44.61586 -88.33219 36861 ft 525 kts 129°
2026-05-05 22:04 44.57742 -88.24515 36856 ft 526 kts 129°
2026-05-05 22:04 44.54367 -88.15309 36858 ft 536 kts 118°
2026-05-05 22:05 44.51595 -88.05588 36855 ft 538 kts 117°
2026-05-05 22:05 44.48909 -87.95807 36855 ft 538 kts 116°
2026-05-05 22:06 44.46206 -87.86037 36852 ft 537 kts 117°
2026-05-05 22:06 44.43482 -87.76305 36851 ft 537 kts 117°
2026-05-05 22:07 44.40741 -87.66583 36844 ft 537 kts 117°
2026-05-05 22:07 44.37989 -87.56862 36844 ft 538 kts 117°
2026-05-05 22:08 44.35234 -87.47173 36845 ft 540 kts 117°
2026-05-05 22:08 44.32457 -87.37430 36843 ft 540 kts 117°
2026-05-05 22:09 44.29668 -87.27685 36842 ft 540 kts 117°
2026-05-05 22:09 44.26875 -87.17966 36844 ft 540 kts 117°
2026-05-05 22:10 44.24071 -87.08248 36842 ft 540 kts 117°
2026-05-05 22:10 44.21261 -86.98546 36840 ft 540 kts 118°
2026-05-05 22:11 44.18442 -86.88851 36840 ft 540 kts 118°
2026-05-05 22:11 44.15608 -86.79146 36854 ft 541 kts 118°
2026-05-05 22:12 44.12765 -86.69444 36855 ft 541 kts 118°
2026-05-05 22:12 44.09914 -86.59748 36859 ft 541 kts 118°
2026-05-05 22:13 44.07054 -86.50062 36860 ft 541 kts 118°
2026-05-05 22:13 44.04185 -86.40384 36861 ft 542 kts 118°
2026-05-05 22:14 44.01308 -86.30714 36861 ft 542 kts 118°
2026-05-05 22:14 43.98422 -86.21049 36854 ft 541 kts 118°
2026-05-05 22:15 43.95548 -86.11465 36819 ft 540 kts 118°
2026-05-05 22:15 43.92657 -86.01857 36852 ft 539 kts 118°
2026-05-05 22:16 43.89767 -85.92286 36853 ft 538 kts 118°
2026-05-05 22:16 43.86862 -85.82707 36844 ft 538 kts 118°
2026-05-05 22:17 43.83954 -85.73152 36843 ft 538 kts 118°
2026-05-05 22:17 43.81040 -85.63614 36833 ft 538 kts 118°
2026-05-05 22:18 43.78112 -85.54063 36831 ft 538 kts 119°
2026-05-05 22:18 43.75180 -85.44536 36833 ft 538 kts 119°
2026-05-05 22:19 43.72244 -85.35027 36830 ft 537 kts 119°
2026-05-05 22:19 43.69312 -85.25564 36842 ft 536 kts 119°
2026-05-05 22:20 43.66370 -85.16109 36839 ft 535 kts 119°
2026-05-05 22:20 43.63421 -85.06668 36833 ft 535 kts 119°
2026-05-05 22:21 43.60466 -84.97237 36829 ft 534 kts 119°
2026-05-05 22:21 43.57510 -84.87839 36834 ft 534 kts 120°
2026-05-05 22:22 43.54551 -84.78465 36832 ft 534 kts 120°
2026-05-05 22:22 43.51596 -84.69137 36832 ft 534 kts 120°
2026-05-05 22:23 43.48621 -84.59776 36830 ft 533 kts 120°
2026-05-05 22:23 43.45642 -84.50438 36830 ft 532 kts 120°
2026-05-05 22:24 43.42659 -84.41118 36828 ft 532 kts 120°
2026-05-05 22:24 43.39668 -84.31812 36818 ft 532 kts 120°
2026-05-05 22:25 43.36671 -84.22513 36815 ft 531 kts 120°
2026-05-05 22:25 43.33671 -84.13239 36815 ft 531 kts 120°
2026-05-05 22:26 43.30668 -84.03992 36809 ft 531 kts 120°
2026-05-05 22:26 43.27656 -83.94747 36812 ft 530 kts 120°
2026-05-05 22:27 43.24652 -83.85560 36812 ft 533 kts 120°
2026-05-05 22:27 43.21605 -83.76276 36814 ft 535 kts 120°
2026-05-05 22:28 43.18549 -83.66986 36828 ft 534 kts 120°
2026-05-05 22:28 43.15482 -83.57696 36830 ft 534 kts 120°
2026-05-05 22:29 43.12410 -83.48430 36827 ft 534 kts 120°
2026-05-05 22:29 43.09337 -83.39187 36828 ft 533 kts 120°
2026-05-05 22:30 43.06259 -83.29962 36828 ft 533 kts 120°
2026-05-05 22:30 43.03171 -83.20744 36830 ft 533 kts 120°
2026-05-05 22:31 43.00082 -83.11544 36818 ft 530 kts 120°
2026-05-05 22:31 42.97010 -83.02429 36825 ft 528 kts 120°
2026-05-05 22:32 42.93929 -82.93325 36826 ft 527 kts 120°
2026-05-05 22:32 42.90865 -82.84300 36828 ft 527 kts 120°
2026-05-05 22:33 42.87774 -82.75225 36814 ft 527 kts 120°
2026-05-05 22:33 42.84678 -82.66162 36821 ft 527 kts 120°
2026-05-05 22:34 42.81612 -82.57084 36815 ft 530 kts 116°
2026-05-05 22:34 42.79591 -82.47370 36828 ft 535 kts 107°
2026-05-05 22:35 42.77946 -82.37485 36813 ft 536 kts 105°
2026-05-05 22:35 42.76340 -82.27576 36826 ft 536 kts 105°
2026-05-05 22:36 42.74706 -82.17689 36824 ft 536 kts 105°
2026-05-05 22:36 42.73045 -82.07804 36825 ft 536 kts 105°
2026-05-05 22:37 42.71370 -81.97921 36830 ft 536 kts 105°
2026-05-05 22:37 42.69687 -81.88047 36832 ft 536 kts 105°
2026-05-05 22:38 42.67996 -81.78170 36841 ft 536 kts 105°
2026-05-05 22:38 42.66309 -81.68373 36837 ft 536 kts 105°
2026-05-05 22:39 42.64591 -81.58452 36845 ft 535 kts 105°
2026-05-05 22:39 42.62891 -81.48689 36849 ft 535 kts 105°
2026-05-05 22:40 42.61170 -81.38855 36847 ft 535 kts 105°
2026-05-05 22:40 42.59442 -81.29037 36848 ft 535 kts 105°
2026-05-05 22:41 42.57708 -81.19241 36852 ft 533 kts 105°
2026-05-05 22:41 42.55972 -81.09480 36851 ft 532 kts 105°
2026-05-05 22:42 42.54227 -80.99723 36854 ft 532 kts 105°
2026-05-05 22:42 42.52473 -80.89972 36843 ft 532 kts 105°
2026-05-05 22:43 42.50717 -80.80252 36860 ft 530 kts 105°
2026-05-05 22:43 42.48957 -80.70567 36865 ft 530 kts 105°
2026-05-05 22:44 42.47188 -80.60879 36867 ft 529 kts 105°
2026-05-05 22:44 42.45712 -80.52839 36850 ft 529 kts 105°
2026-05-05 22:45 42.43932 -80.43183 36871 ft 528 kts 106°
2026-05-05 22:45 42.42147 -80.33548 36871 ft 527 kts 106°
2026-05-05 22:46 42.40354 -80.23921 36875 ft 527 kts 106°
2026-05-05 22:46 42.38554 -80.14305 36863 ft 527 kts 106°
2026-05-05 22:47 42.36752 -80.04725 36874 ft 525 kts 106°
2026-05-05 22:47 42.34943 -79.95156 36879 ft 525 kts 106°
2026-05-05 22:48 42.33129 -79.85614 36868 ft 525 kts 106°
2026-05-05 22:48 42.31306 -79.76067 36863 ft 524 kts 106°
2026-05-05 22:49 42.29476 -79.66534 36862 ft 524 kts 106°
2026-05-05 22:49 42.27642 -79.57020 36863 ft 523 kts 106°
2026-05-05 22:50 42.25802 -79.47522 36858 ft 523 kts 106°
2026-05-05 22:50 42.23950 -79.38017 36865 ft 523 kts 106°
2026-05-05 22:51 42.22096 -79.28535 36867 ft 522 kts 106°
2026-05-05 22:51 42.20233 -79.19061 36838 ft 522 kts 106°
2026-05-05 22:52 42.18355 -79.09605 36859 ft 522 kts 107°
2026-05-05 22:52 42.16112 -79.00326 36856 ft 520 kts 111°
2026-05-05 22:53 42.13713 -78.91199 36825 ft 520 kts 111°
2026-05-05 22:53 42.11338 -78.81998 36831 ft 520 kts 111°
2026-05-05 22:54 42.09001 -78.72780 36831 ft 520 kts 110°
2026-05-05 22:54 42.06673 -78.63557 36829 ft 520 kts 110°
2026-05-05 22:55 42.04344 -78.54362 36832 ft 519 kts 110°
2026-05-05 22:55 42.02000 -78.45178 36826 ft 519 kts 110°
2026-05-05 22:56 41.99650 -78.35996 36825 ft 519 kts 110°
2026-05-05 22:56 41.97295 -78.26832 36830 ft 519 kts 110°
2026-05-05 22:57 41.94930 -78.17660 36834 ft 519 kts 110°
2026-05-05 22:57 41.92559 -78.08506 36836 ft 519 kts 110°
2026-05-05 22:58 41.90196 -77.99417 36834 ft 519 kts 110°
2026-05-05 22:58 41.87814 -77.90284 36838 ft 518 kts 110°
2026-05-05 22:59 41.85431 -77.81187 36837 ft 516 kts 110°
2026-05-05 22:59 41.83045 -77.72113 36828 ft 516 kts 110°
2026-05-05 23:00 41.79450 -77.58484 36827 ft 516 kts 110°
2026-05-05 23:00 41.77040 -77.49429 36821 ft 516 kts 110°
2026-05-05 23:01 41.74629 -77.40379 36826 ft 515 kts 110°
2026-05-05 23:01 41.72220 -77.31350 36816 ft 515 kts 110°
2026-05-05 23:02 41.69801 -77.22324 36794 ft 515 kts 110°
2026-05-05 23:02 41.67381 -77.13336 36808 ft 512 kts 110°
2026-05-05 23:03 41.64962 -77.04390 36800 ft 511 kts 110°
2026-05-05 23:03 41.62541 -76.95457 36800 ft 511 kts 110°
2026-05-05 23:04 41.60116 -76.86547 36785 ft 510 kts 110°
2026-05-05 23:04 41.57686 -76.77647 36801 ft 509 kts 110°
2026-05-05 23:05 41.55257 -76.68791 36801 ft 508 kts 110°
2026-05-05 23:05 41.52822 -76.59942 36803 ft 508 kts 111°
2026-05-05 23:06 41.50399 -76.51162 36801 ft 507 kts 111°
2026-05-05 23:06 41.47959 -76.42358 36811 ft 505 kts 111°
2026-05-05 23:07 41.45519 -76.33581 36808 ft 504 kts 111°
2026-05-05 23:07 41.43057 -76.24754 36657 ft 518 kts 111°
2026-05-05 23:08 41.41784 -76.20202 36596 ft 531 kts 111°
2026-05-05 23:08 41.40478 -76.15541 36482 ft 542 kts 111°
2026-05-05 23:08 41.39158 -76.10833 36242 ft 542 kts 111°
2026-05-05 23:08 41.37839 -76.06138 35979 ft 540 kts 111°
2026-05-05 23:09 41.36523 -76.01461 35722 ft 540 kts 112°
2026-05-05 23:09 41.35203 -75.96784 35464 ft 538 kts 112°
2026-05-05 23:09 41.33891 -75.92139 35240 ft 535 kts 112°
2026-05-05 23:09 41.32584 -75.87524 34997 ft 532 kts 112°
2026-05-05 23:10 41.31277 -75.82917 34714 ft 530 kts 112°
2026-05-05 23:10 41.29980 -75.78356 34499 ft 528 kts 112°
2026-05-05 23:10 41.28679 -75.73790 34170 ft 524 kts 112°
2026-05-05 23:10 41.27392 -75.69276 33761 ft 521 kts 112°
2026-05-05 23:11 41.26050 -75.64830 33254 ft 516 kts 116°
2026-05-05 23:11 41.24582 -75.60511 32780 ft 511 kts 117°
2026-05-05 23:11 41.23112 -75.56233 32296 ft 506 kts 117°
2026-05-05 23:11 41.21666 -75.51992 31878 ft 502 kts 117°
2026-05-05 23:12 41.20239 -75.47783 31437 ft 498 kts 117°
2026-05-05 23:12 41.18829 -75.43609 30976 ft 494 kts 117°
2026-05-05 23:12 41.17429 -75.39462 30520 ft 489 kts 117°
2026-05-05 23:12 41.16046 -75.35365 30068 ft 481 kts 117°
2026-05-05 23:13 41.14690 -75.31346 29588 ft 477 kts 117°
2026-05-05 23:13 41.13339 -75.27344 29079 ft 474 kts 117°
2026-05-05 23:13 41.11995 -75.23370 28594 ft 471 kts 117°
2026-05-05 23:13 41.10657 -75.19419 28113 ft 464 kts 117°
2026-05-05 23:14 41.09343 -75.15541 27627 ft 460 kts 117°
2026-05-05 23:14 41.08036 -75.11688 27159 ft 457 kts 117°
2026-05-05 23:14 41.06737 -75.07863 26683 ft 452 kts 117°
2026-05-05 23:14 41.05451 -75.04082 26219 ft 449 kts 117°
2026-05-05 23:15 41.04171 -75.00327 25758 ft 445 kts 117°
2026-05-05 23:15 41.02900 -74.96606 25323 ft 443 kts 117°
2026-05-05 23:15 41.01642 -74.92921 24897 ft 437 kts 117°
2026-05-05 23:15 41.00398 -74.89255 24579 ft 435 kts 116°
2026-05-05 23:16 40.99457 -74.85450 24345 ft 435 kts 104°
2026-05-05 23:16 40.98929 -74.81510 24110 ft 434 kts 101°
2026-05-05 23:16 40.98485 -74.77621 23887 ft 432 kts 100°
2026-05-05 23:16 40.98037 -74.73696 23669 ft 432 kts 101°
2026-05-05 23:17 40.97584 -74.69773 23432 ft 429 kts 101°
2026-05-05 23:17 40.97132 -74.65885 23170 ft 427 kts 101°
2026-05-05 23:17 40.96678 -74.62018 22919 ft 423 kts 101°
2026-05-05 23:17 40.96233 -74.58231 22703 ft 410 kts 101°
2026-05-05 23:18 40.95801 -74.54562 22509 ft 397 kts 101°
2026-05-05 23:18 40.95382 -74.51031 22262 ft 386 kts 101°
2026-05-05 23:18 40.94970 -74.47572 22000 ft 377 kts 101°
2026-05-05 23:18 40.94561 -74.44154 21786 ft 375 kts 101°
2026-05-05 23:19 40.94152 -74.40755 21421 ft 374 kts 101°
2026-05-05 23:19 40.93743 -74.37353 21039 ft 373 kts 102°
2026-05-05 23:19 40.93335 -74.33969 20660 ft 372 kts 101°
2026-05-05 23:19 40.92929 -74.30607 20290 ft 371 kts 101°
2026-05-05 23:20 40.92522 -74.27238 19923 ft 369 kts 102°
2026-05-05 23:20 40.92117 -74.23897 19562 ft 368 kts 102°
2026-05-05 23:20 40.91711 -74.20565 19206 ft 366 kts 102°
2026-05-05 23:20 40.91308 -74.17257 18923 ft 364 kts 102°
2026-05-05 23:21 40.90863 -74.13958 18853 ft 363 kts 106°
2026-05-05 23:21 40.90013 -74.10854 18850 ft 356 kts 122°
2026-05-05 23:21 40.88732 -74.08084 18846 ft 351 kts 131°
2026-05-05 23:21 40.87100 -74.05736 18809 ft 344 kts 146°
2026-05-05 23:22 40.85085 -74.04170 18480 ft 330 kts 165°
2026-05-05 23:22 40.82904 -74.03263 17897 ft 329 kts 171°
2026-05-05 23:22 40.80700 -74.02469 17367 ft 327 kts 171°
2026-05-05 23:22 40.78519 -74.01683 16950 ft 323 kts 171°
2026-05-05 23:23 40.76392 -74.00710 16663 ft 327 kts 161°
2026-05-05 23:23 40.74497 -73.99007 16270 ft 335 kts 141°
2026-05-05 23:23 40.72976 -73.96670 15856 ft 337 kts 132°
2026-05-05 23:23 40.71564 -73.94202 15433 ft 336 kts 131°
2026-05-05 23:24 40.70166 -73.91759 15008 ft 335 kts 132°
2026-05-05 23:24 40.68761 -73.89322 14585 ft 333 kts 132°
2026-05-05 23:24 40.67358 -73.86902 14196 ft 331 kts 132°
2026-05-05 23:24 40.65986 -73.84517 13914 ft 331 kts 130°
2026-05-05 23:25 40.64679 -73.81964 13428 ft 331 kts 127°
2026-05-05 23:25 40.63445 -73.79462 13027 ft 329 kts 127°
2026-05-05 23:25 40.62192 -73.76948 12654 ft 328 kts 128°
2026-05-05 23:25 40.60941 -73.74464 12382 ft 322 kts 128°
2026-05-05 23:26 40.59703 -73.72022 12130 ft 321 kts 128°
2026-05-05 23:26 40.58465 -73.69590 11800 ft 319 kts 128°
2026-05-05 23:26 40.57232 -73.67172 11467 ft 316 kts 128°
2026-05-05 23:26 40.56021 -73.64788 11075 ft 314 kts 128°
2026-05-05 23:27 40.55071 -73.62155 10732 ft 325 kts 108°
2026-05-05 23:27 40.55061 -73.59192 10408 ft 327 kts 77°
2026-05-05 23:27 40.56061 -73.56559 9920 ft 323 kts 46°
2026-05-05 23:27 40.57798 -73.54784 9435 ft 314 kts 25°
2026-05-05 23:28 40.59653 -73.53276 9060 ft 313 kts 28°
2026-05-05 23:28 40.61461 -73.51700 8710 ft 311 kts 30°
2026-05-05 23:28 40.63238 -73.50088 8359 ft 309 kts 31°
2026-05-05 23:28 40.65061 -73.48621 8006 ft 305 kts 24°
2026-05-05 23:29 40.66923 -73.47293 7669 ft 305 kts 24°
2026-05-05 23:29 40.68787 -73.45973 7331 ft 304 kts 23°
2026-05-05 23:29 40.70671 -73.44736 6992 ft 302 kts 20°
2026-05-05 23:29 40.71930 -73.43963 6776 ft 301 kts 20°
2026-05-05 23:30 40.73844 -73.42863 6431 ft 297 kts 13°
2026-05-05 23:30 40.75826 -73.42582 6125 ft 280 kts 343°
2026-05-05 23:30 40.77563 -73.43509 5879 ft 264 kts 318°
2026-05-05 23:30 40.78780 -73.45232 5434 ft 253 kts 296°
2026-05-05 23:31 40.79689 -73.47195 5047 ft 251 kts 294°
2026-05-05 23:31 40.80578 -73.49183 4698 ft 251 kts 294°
2026-05-05 23:31 40.81466 -73.51163 4334 ft 250 kts 293°
2026-05-05 23:31 40.82084 -73.53258 4057 ft 241 kts 275°
2026-05-05 23:32 40.82043 -73.55424 3777 ft 235 kts 256°
2026-05-05 23:32 40.81661 -73.57509 3303 ft 233 kts 252°
2026-05-05 23:32 40.81199 -73.59516 3036 ft 222 kts 249°
2026-05-05 23:32 40.80641 -73.61329 2956 ft 204 kts 243°
2026-05-05 23:33 40.80012 -73.62899 2984 ft 183 kts 238°
2026-05-05 23:33 40.79348 -73.64232 2993 ft 166 kts 234°
2026-05-05 23:33 40.78612 -73.65324 2983 ft 156 kts 225°
2026-05-05 23:33 40.77819 -73.66322 2904 ft 159 kts 225°
2026-05-05 23:34 40.77019 -73.67325 2784 ft 158 kts 225°
2026-05-05 23:34 40.76173 -73.68217 2640 ft 157 kts 216°
2026-05-05 23:34 40.75259 -73.68975 2430 ft 152 kts 214°
2026-05-05 23:34 40.74390 -73.69669 2235 ft 140 kts 213°
2026-05-05 23:35 40.73557 -73.70304 2057 ft 137 kts 211°
2026-05-05 23:35 40.72736 -73.70908 1849 ft 130 kts 212°
2026-05-05 23:35 40.72001 -73.71429 1766 ft 110 kts 211°
2026-05-05 23:35 40.71346 -73.71893 1597 ft 105 kts 211°
2026-05-05 23:36 40.70695 -73.72358 1432 ft 108 kts 210°
2026-05-05 23:36 40.70030 -73.72831 1293 ft 108 kts 209°
2026-05-05 23:36 40.69363 -73.73301 1150 ft 109 kts 210°
2026-05-05 23:36 40.68687 -73.73782 1013 ft 112 kts 206°
2026-05-05 23:37 40.67997 -73.74267 863 ft 113 kts 208°
2026-05-05 23:37 40.67300 -73.74761 722 ft 114 kts 207°
2026-05-05 23:37 40.66608 -73.75251 585 ft 111 kts 201°
2026-05-05 23:37 40.65912 -73.75740 411 ft 116 kts 205°
2026-05-05 23:38 40.65224 -73.76225 276 ft 119 kts 206°
2026-05-05 23:38 40.64514 -73.76779 156 ft 117 kts 208°
2026-05-05 23:38 40.63853 -73.77314 65 ft 105 kts 206°
2026-05-05 23:38 40.63258 -73.77803 498 ft 115 kts 205°
2026-05-05 23:39 40.62421 -73.78448 1227 ft 160 kts 210°
2026-05-05 23:39 40.61335 -73.79277 2186 ft 192 kts 213°
2026-05-05 23:39 40.60240 -73.80104 3287 ft 171 kts 211°
2026-05-05 23:39 40.59191 -73.80710 4233 ft 163 kts 206°
2026-05-05 23:40 40.58027 -73.80924 4840 ft 181 kts 188°
2026-05-05 23:40 40.56654 -73.80740 5046 ft 211 kts 180°
2026-05-05 23:40 40.55117 -73.80408 5344 ft 237 kts 179°
2026-05-05 23:40 40.53449 -73.80048 5822 ft 254 kts 179°
2026-05-05 23:41 40.51667 -73.79671 6484 ft 263 kts 179°
2026-05-05 23:41 40.49838 -73.79294 7199 ft 269 kts 179°
2026-05-05 23:41 40.47973 -73.78916 7947 ft 274 kts 178°
2026-05-05 23:41 40.46070 -73.78537 8722 ft 279 kts 178°
2026-05-05 23:42 40.44135 -73.78154 9502 ft 283 kts 177°
2026-05-05 23:42 40.42165 -73.77767 10204 ft 291 kts 177°
2026-05-05 23:42 40.40105 -73.77368 10563 ft 308 kts 176°
2026-05-05 23:42 40.37938 -73.76946 11051 ft 319 kts 177°
2026-05-05 23:43 40.35718 -73.76511 11678 ft 326 kts 176°
2026-05-05 23:43 40.33454 -73.76067 12335 ft 331 kts 176°
2026-05-05 23:43 40.31166 -73.75622 13019 ft 335 kts 176°
2026-05-05 23:43 40.28875 -73.75723 13480 ft 327 kts 199°
2026-05-05 23:44 40.26899 -73.77092 13909 ft 324 kts 224°
2026-05-05 23:44 40.25611 -73.79464 14564 ft 321 kts 245°
2026-05-05 23:44 40.24674 -73.82137 15165 ft 325 kts 250°
2026-05-05 23:44 40.24201 -73.85046 15675 ft 328 kts 258°
2026-05-05 23:45 40.23976 -73.88022 15893 ft 331 kts 269°
2026-05-05 23:45 40.24331 -73.91008 15930 ft 336 kts 285°
2026-05-05 23:45 40.25441 -73.93717 15907 ft 342 kts 302°
2026-05-05 23:45 40.26933 -73.96165 15892 ft 347 kts 309°
2026-05-05 23:46 40.28810 -73.98189 15892 ft 355 kts 324°
2026-05-05 23:46 40.31133 -73.99356 15900 ft 366 kts 346°
2026-05-05 23:46 40.33704 -73.99606 16090 ft 373 kts 354°
2026-05-05 23:46 40.36301 -73.99666 16179 ft 372 kts 354°
2026-05-05 23:47 40.38888 -73.99716 16187 ft 372 kts 354°
2026-05-05 23:47 40.41481 -73.99769 16177 ft 372 kts 354°
2026-05-05 23:47 40.44034 -73.99824 16175 ft 372 kts 354°
2026-05-05 23:47 40.46624 -73.99882 16176 ft 373 kts 354°
2026-05-05 23:48 40.49221 -73.99940 16174 ft 373 kts 354°
2026-05-05 23:48 40.51812 -73.99998 16174 ft 373 kts 354°
2026-05-05 23:48 40.54422 -74.00057 16176 ft 373 kts 354°
2026-05-05 23:48 40.57017 -74.00115 16175 ft 373 kts 354°
2026-05-05 23:49 40.59618 -74.00174 16178 ft 373 kts 354°
2026-05-05 23:49 40.62212 -74.00233 16178 ft 373 kts 354°
2026-05-05 23:49 40.64808 -74.00292 16178 ft 373 kts 354°
2026-05-05 23:49 40.67408 -74.00351 16183 ft 373 kts 354°
2026-05-05 23:50 40.69998 -74.00378 16102 ft 371 kts 358°
2026-05-05 23:50 40.72531 -73.99874 15861 ft 372 kts 13°
2026-05-05 23:50 40.74829 -73.98232 15607 ft 383 kts 37°
2026-05-05 23:50 40.76529 -73.95524 15352 ft 387 kts 61°
2026-05-05 23:51 40.77348 -73.92167 15114 ft 385 kts 84°
2026-05-05 23:51 40.77160 -73.88681 14862 ft 379 kts 108°
2026-05-05 23:51 40.75997 -73.85655 14626 ft 364 kts 134°
2026-05-05 23:51 40.74100 -73.83669 14400 ft 337 kts 160°
2026-05-05 23:52 40.71921 -73.83066 14155 ft 309 kts 188°
2026-05-05 23:52 40.69961 -73.83793 14022 ft 284 kts 210°
2026-05-05 23:52 40.68099 -73.84466 13989 ft 276 kts 185°
2026-05-05 23:52 40.66289 -73.83782 13983 ft 274 kts 152°
2026-05-05 23:53 40.65075 -73.81919 13978 ft 269 kts 116°
2026-05-05 23:53 40.64857 -73.79582 13984 ft 260 kts 79°
2026-05-05 23:53 40.65157 -73.77246 13909 ft 259 kts 94°
2026-05-05 23:53 40.64631 -73.75079 13713 ft 244 kts 133°
2026-05-05 23:54 40.63349 -73.73789 13330 ft 227 kts 166°
2026-05-05 23:54 40.61902 -73.72951 12981 ft 230 kts 160°
2026-05-05 23:54 40.60560 -73.71774 12766 ft 233 kts 147°
2026-05-05 23:54 40.59397 -73.70332 12641 ft 225 kts 140°
2026-05-05 23:55 40.58393 -73.68820 12528 ft 215 kts 136°
2026-05-05 23:55 40.57469 -73.67281 12221 ft 213 kts 134°
2026-05-05 23:55 40.56591 -73.65721 11995 ft 212 kts 132°
2026-05-05 23:55 40.55771 -73.64153 11794 ft 204 kts 128°
2026-05-05 23:56 40.55185 -73.62475 11655 ft 201 kts 113°
2026-05-05 23:56 40.54968 -73.60649 11361 ft 205 kts 94°
2026-05-05 23:56 40.55181 -73.58776 11069 ft 213 kts 72°
2026-05-05 23:56 40.55872 -73.56950 11054 ft 223 kts 53°
2026-05-05 23:57 40.56944 -73.55490 10627 ft 223 kts 31°
2026-05-05 23:57 40.58322 -73.54452 10209 ft 242 kts 21°
2026-05-05 23:57 40.59863 -73.53283 10156 ft 261 kts 28°
2026-05-05 23:57 40.61350 -73.51948 9872 ft 258 kts 31°
2026-05-05 23:58 40.62778 -73.50603 9700 ft 247 kts 31°
2026-05-05 23:58 40.64161 -73.49351 9499 ft 235 kts 26°
2026-05-05 23:58 40.65539 -73.48309 9359 ft 223 kts 22°
2026-05-05 23:58 40.66871 -73.47350 9191 ft 213 kts 22°
2026-05-05 23:59 40.68137 -73.46440 9071 ft 202 kts 21°
2026-05-05 23:59 40.69349 -73.45598 8933 ft 192 kts 18°
2026-05-05 23:59 40.70524 -73.44862 8795 ft 182 kts 17°
2026-05-05 23:59 40.71651 -73.44168 8619 ft 176 kts 16°
2026-05-06 00:00 40.72748 -73.43489 8361 ft 173 kts 16°
2026-05-06 00:00 40.73851 -73.42859 8080 ft 171 kts
2026-05-06 00:00 40.74980 -73.42540 7830 ft 162 kts 353°
2026-05-06 00:00 40.76059 -73.42633 7572 ft 151 kts 336°
2026-05-06 00:01 40.77023 -73.43072 7270 ft 145 kts 322°
2026-05-06 00:01 40.77873 -73.43829 6812 ft 151 kts 308°
2026-05-06 00:01 40.78574 -73.44896 6295 ft 157 kts 295°
2026-05-06 00:01 40.79165 -73.46151 5751 ft 166 kts 291°
2026-05-06 00:02 40.79759 -73.47477 5213 ft 174 kts 292°
2026-05-06 00:02 40.80391 -73.48871 4690 ft 180 kts 292°
2026-05-06 00:02 40.81048 -73.50304 4150 ft 184 kts 292°
2026-05-06 00:02 40.81676 -73.51739 3865 ft 173 kts 288°
2026-05-06 00:03 40.82043 -73.53115 3863 ft 144 kts 274°
2026-05-06 00:03 40.82126 -73.54301 3917 ft 117 kts 262°
2026-05-06 00:03 40.82028 -73.55297 3956 ft 105 kts 252°
2026-05-06 00:03 40.81848 -73.56222 3974 ft 104 kts 251°
2026-05-06 00:04 40.81668 -73.57149 3981 ft 104 kts 251°
2026-05-06 00:04 40.81488 -73.58077 3988 ft 104 kts 251°
2026-05-06 00:04 40.81297 -73.59000 3986 ft 104 kts 250°
2026-05-06 00:04 40.81071 -73.59908 3947 ft 104 kts 248°
2026-05-06 00:05 40.80515 -73.61645 3806 ft 102 kts 242°
2026-05-06 00:05 40.80188 -73.62473 3735 ft 102 kts 240°
2026-05-06 00:05 40.79825 -73.63285 3661 ft 103 kts 238°
2026-05-06 00:06 40.79431 -73.64070 3555 ft 102 kts 235°
2026-05-06 00:06 40.78987 -73.64793 3439 ft 101 kts 228°
2026-05-06 00:06 40.78480 -73.65436 3338 ft 101 kts 227°
2026-05-06 00:06 40.77973 -73.66071 3237 ft 100 kts 226°
2026-05-06 00:07 40.77471 -73.66700 3120 ft 99 kts 225°
2026-05-06 00:07 40.76970 -73.67327 3041 ft 99 kts 226°
2026-05-06 00:07 40.76462 -73.67933 2988 ft 101 kts 223°
2026-05-06 00:07 40.75892 -73.68485 2936 ft 102 kts 218°
2026-05-06 00:08 40.75291 -73.68987 2882 ft 102 kts 217°
2026-05-06 00:08 40.74682 -73.69469 2840 ft 102 kts 216°
2026-05-06 00:08 40.74094 -73.69921 2794 ft 102 kts 214°
2026-05-06 00:08 40.73787 -73.70150 2776 ft 101 kts 214°
2026-05-06 00:09 40.73231 -73.70558 2725 ft 101 kts 213°
2026-05-06 00:09 40.72609 -73.70992 2668 ft 101 kts 212°
2026-05-06 00:09 40.71987 -73.71433 2630 ft 101 kts 213°
2026-05-06 00:09 40.71356 -73.71888 2629 ft 106 kts 213°
2026-05-06 00:10 40.70711 -73.72350 2516 ft 104 kts 212°
2026-05-06 00:10 40.70051 -73.72783 2348 ft 108 kts 207°
2026-05-06 00:10 40.69354 -73.73196 2070 ft 110 kts 208°
2026-05-06 00:10 40.68671 -73.73619 1785 ft 107 kts 207°
2026-05-06 00:11 40.68017 -73.74096 1448 ft 108 kts 212°
2026-05-06 00:11 40.67357 -73.74615 1133 ft 112 kts 211°
2026-05-06 00:11 40.66666 -73.75146 807 ft 118 kts 210°
2026-05-06 00:11 40.65962 -73.75703 511 ft 118 kts 207°
2026-05-06 00:12 40.65267 -73.76226 234 ft 111 kts 202°
2026-05-06 00:12 40.64609 -73.76697 100 ft 104 kts 206°
2026-05-06 00:12 40.63993 -73.77188 30 ft 102 kts 207°
2026-05-06 00:12 40.63599 -73.77470 29 ft 26 kts 209°
2026-05-06 00:13 40.63452 -73.77582 30 ft 23 kts 212°
2026-05-06 00:13 40.63345 -73.77672 34 ft 14 kts 219°
2026-05-06 00:13 40.63310 -73.77781 33 ft 11 kts 283°
2026-05-06 00:13 40.63365 -73.77812 33 ft 11 kts 11°
2026-05-06 00:14 40.63440 -73.77761 32 ft 9 kts 31°
2026-05-06 00:14 40.63500 -73.77749 29 ft 7 kts 346°
2026-05-06 00:14 40.63546 -73.77812 28 ft 12 kts 305°
2026-05-06 00:14 40.63622 -73.77885 29 ft 16 kts 340°
2026-05-06 00:15 40.63722 -73.77907 29 ft 11 kts 352°
2026-05-06 00:15 40.63810 -73.77921 29 ft 8 kts 345°
2026-05-06 00:15 40.63833 -73.77943 29 ft 2 kts 312°
2026-05-06 00:15 40.63842 -73.77976 29 ft 6 kts 284°
2026-05-06 00:16 40.63843 -73.78012 29 ft 3 kts 267°
2026-05-06 00:16 40.63843 -73.78013 29 ft 0 kts 267°